Time,TemperatureF,DewpointF,PressureIn,WindDirection,WindDirectionDegrees,WindSpeedMPH,WindSpeedGustMPH,Humidity,HourlyPrecipIn,Conditions,Clouds,dailyrainin,SolarRadiationWatts/m^2,SoftwareType,DateUTC
2013-12-06 00:00:00,33.9,30.0,30.11,NW,315,0.0,5.1,86,0.02,,,0.10,0.00,VWS V14.01,2013-12-06 05:00:00,
2013-12-06 00:01:00,33.9,30.0,30.11,NW,315,0.0,5.1,86,0.02,,,0.10,0.00,VWS V14.01,2013-12-06 05:01:00,
2013-12-06 00:02:00,33.9,30.0,30.12,NW,309,0.0,1.7,86,0.02,,,0.00,0.00,VWS V14.01,2013-12-06 05:02:00,
2013-12-06 00:05:00,34.0,30.1,30.14,West,281,0.0,6.8,86,0.02,,,0.00,0.00,VWS V14.01,2013-12-06 05:05:00,
2013-12-06 00:07:00,34.0,30.1,30.14,West,274,0.0,3.4,86,0.03,,,0.01,0.00,VWS V14.01,2013-12-06 05:07:00,
2013-12-06 00:10:00,34.0,30.1,30.14,West,273,0.0,3.4,86,0.03,,,0.01,0.00,VWS V14.01,2013-12-06 05:10:00,
2013-12-06 00:12:00,33.9,30.0,30.13,NW,322,0.0,6.8,86,0.03,,,0.01,0.00,VWS V14.01,2013-12-06 05:12:00,
2013-12-06 00:15:00,33.9,30.0,30.13,WNW,300,0.0,6.8,86,0.03,,,0.01,0.00,VWS V14.01,2013-12-06 05:15:00,
2013-12-06 00:17:00,33.9,30.3,30.13,WNW,295,1.9,1.9,86,0.02,,,0.01,0.00,VWS V14.01,2013-12-06 05:17:00,
2013-12-06 00:20:00,33.8,30.2,30.12,NW,319,3.8,6.8,86,0.02,,,0.01,0.00,VWS V14.01,2013-12-06 05:20:00,
2013-12-06 00:22:00,33.8,30.2,30.12,NW,321,0.0,3.4,86,0.02,,,0.01,0.00,VWS V14.01,2013-12-06 05:22:00,
2013-12-06 00:25:00,33.8,30.2,30.11,WNW,294,0.0,6.8,86,0.03,,,0.02,0.00,VWS V14.01,2013-12-06 05:25:00,
2013-12-06 00:27:00,33.7,30.1,30.11,WNW,294,0.0,0.0,86,0.03,,,0.02,0.00,VWS V14.01,2013-12-06 05:27:00,
2013-12-06 00:30:00,33.8,30.2,30.11,WNW,294,0.0,3.4,86,0.03,,,0.02,0.00,VWS V14.01,2013-12-06 05:30:00,
2013-12-06 00:32:00,33.8,30.2,30.10,WNW,294,0.0,0.0,86,0.03,,,0.02,0.00,VWS V14.01,2013-12-06 05:32:00,
2013-12-06 00:35:00,33.8,30.2,30.10,WNW,294,0.0,0.0,86,0.03,,,0.02,0.00,VWS V14.01,2013-12-06 05:35:00,
2013-12-06 00:37:00,33.8,31.8,30.10,WNW,294,0.0,3.4,92,0.03,,,0.02,0.00,VWS V14.01,2013-12-06 05:37:00,
2013-12-06 00:40:00,33.7,30.1,30.10,WNW,295,0.0,3.4,86,0.03,,,0.02,0.00,VWS V14.01,2013-12-06 05:40:00,
2013-12-06 00:42:00,33.7,30.1,30.10,West,260,3.8,3.8,86,0.03,,,0.02,0.00,VWS V14.01,2013-12-06 05:42:00,
2013-12-06 00:45:00,33.7,30.1,30.10,West,268,0.0,13.6,86,0.03,,,0.02,0.00,VWS V14.01,2013-12-06 05:45:00,
2013-12-06 00:47:00,33.7,30.1,30.10,West,269,0.0,1.7,86,0.03,,,0.02,0.00,VWS V14.01,2013-12-06 05:47:00,
2013-12-06 00:50:00,33.7,30.1,30.10,WNW,283,0.0,3.4,86,0.03,,,0.02,0.00,VWS V14.01,2013-12-06 05:50:00,
2013-12-06 00:52:00,33.7,30.1,30.10,NNW,342,1.9,3.4,86,0.03,,,0.02,0.00,VWS V14.01,2013-12-06 05:52:00,
2013-12-06 00:55:00,33.7,30.1,30.09,NNW,344,7.6,7.6,86,0.03,,,0.02,0.00,VWS V14.01,2013-12-06 05:55:00,
2013-12-06 00:57:00,33.6,30.0,30.09,North,355,0.0,8.5,86,0.03,,,0.02,0.00,VWS V14.01,2013-12-06 05:57:00,
2013-12-06 01:00:00,33.6,30.0,30.09,North,355,0.0,8.5,86,0.03,,,0.02,0.00,VWS V14.01,2013-12-06 06:00:00,
2013-12-06 01:02:00,33.6,30.0,30.10,North,355,0.0,3.4,86,0.02,,,0.02,0.00,VWS V14.01,2013-12-06 06:02:00,
2013-12-06 01:05:00,33.6,30.0,30.11,WNW,297,0.0,5.1,86,0.02,,,0.02,0.00,VWS V14.01,2013-12-06 06:05:00,
2013-12-06 01:07:00,33.6,30.0,30.11,WNW,297,0.0,0.0,86,0.02,,,0.02,0.00,VWS V14.01,2013-12-06 06:07:00,
2013-12-06 01:10:00,33.5,29.9,30.11,WNW,297,0.0,0.0,86,0.02,,,0.02,0.00,VWS V14.01,2013-12-06 06:10:00,
2013-12-06 01:12:00,33.6,30.0,30.10,WNW,296,0.0,0.0,86,0.01,,,0.02,0.00,VWS V14.01,2013-12-06 06:12:00,
2013-12-06 01:15:00,33.5,29.9,30.11,West,269,0.0,5.1,86,0.01,,,0.02,0.00,VWS V14.01,2013-12-06 06:15:00,
2013-12-06 01:17:00,33.6,30.0,30.10,NW,306,3.8,3.8,86,0.01,,,0.02,0.00,VWS V14.01,2013-12-06 06:17:00,
2013-12-06 01:20:00,33.4,29.8,30.09,NNW,348,5.7,8.5,86,0.01,,,0.02,0.00,VWS V14.01,2013-12-06 06:20:00,
2013-12-06 01:22:00,33.4,29.8,30.09,NNW,342,0.0,10.2,86,0.01,,,0.02,0.00,VWS V14.01,2013-12-06 06:22:00,
2013-12-06 01:25:00,33.4,29.8,30.12,WNW,288,0.0,10.2,86,0.01,,,0.02,0.00,VWS V14.01,2013-12-06 06:25:00,
2013-12-06 01:27:00,33.4,29.8,30.13,West,275,0.0,6.8,86,0.00,,,0.02,0.00,VWS V14.01,2013-12-06 06:27:00,
2013-12-06 01:30:00,33.3,29.7,30.13,West,267,0.0,6.8,86,0.00,,,0.02,0.00,VWS V14.01,2013-12-06 06:30:00,
2013-12-06 01:32:00,33.4,29.8,30.14,West,263,0.0,5.1,86,0.00,,,0.02,0.00,VWS V14.01,2013-12-06 06:32:00,
2013-12-06 01:35:00,33.3,29.7,30.14,West,263,1.9,5.1,86,0.00,,,0.02,0.00,VWS V14.01,2013-12-06 06:35:00,
2013-12-06 01:37:00,33.3,29.7,30.14,NNW,338,1.9,3.4,86,0.00,,,0.02,0.00,VWS V14.01,2013-12-06 06:37:00,
2013-12-06 01:40:00,33.3,29.7,30.13,NNW,339,0.0,3.4,86,0.00,,,0.02,0.00,VWS V14.01,2013-12-06 06:40:00,
2013-12-06 01:42:00,33.3,29.7,30.13,NNW,340,0.0,5.1,86,0.00,,,0.02,0.00,VWS V14.01,2013-12-06 06:42:00,
2013-12-06 01:45:00,33.3,29.7,30.12,NNW,340,0.0,5.1,86,0.00,,,0.02,0.00,VWS V14.01,2013-12-06 06:45:00,
2013-12-06 01:47:00,33.3,29.7,30.11,NNW,340,0.0,0.0,86,0.00,,,0.02,0.00,VWS V14.01,2013-12-06 06:47:00,
2013-12-06 01:50:00,33.2,29.6,30.12,NNW,341,0.0,3.4,86,0.00,,,0.02,0.00,VWS V14.01,2013-12-06 06:50:00,
2013-12-06 01:52:00,33.2,29.6,30.11,NNW,341,0.0,0.0,86,0.00,,,0.02,0.00,VWS V14.01,2013-12-06 06:52:00,
2013-12-06 01:55:00,33.2,29.6,30.12,NNW,341,0.0,0.0,86,0.00,,,0.02,0.00,VWS V14.01,2013-12-06 06:55:00,
2013-12-06 01:57:00,33.2,29.6,30.12,NNW,341,0.0,0.0,86,0.00,,,0.02,0.00,VWS V14.01,2013-12-06 06:57:00,
2013-12-06 02:00:00,33.2,29.6,30.12,NNW,331,0.0,3.4,86,0.00,,,0.02,0.00,VWS V14.01,2013-12-06 07:00:00,
2013-12-06 02:02:00,33.1,29.2,30.12,NW,325,0.0,1.7,86,0.00,,,0.02,0.00,VWS V14.01,2013-12-06 07:02:00,
2013-12-06 02:05:00,33.0,29.1,30.11,NW,326,0.0,1.7,86,0.00,,,0.02,0.00,VWS V14.01,2013-12-06 07:05:00,
2013-12-06 02:07:00,33.0,29.4,30.11,NW,326,0.0,1.7,86,0.00,,,0.02,0.00,VWS V14.01,2013-12-06 07:07:00,
2013-12-06 02:10:00,33.0,29.4,30.11,NNW,346,3.8,6.8,86,0.00,,,0.02,0.00,VWS V14.01,2013-12-06 07:10:00,
2013-12-06 02:12:00,33.0,29.1,30.11,NNW,346,0.0,3.4,86,0.00,,,0.02,0.00,VWS V14.01,2013-12-06 07:12:00,
2013-12-06 02:15:00,33.0,29.1,30.10,NNW,332,0.0,6.8,86,0.00,,,0.02,0.00,VWS V14.01,2013-12-06 07:15:00,
2013-12-06 02:17:00,33.0,29.1,30.11,NNW,342,0.0,5.1,86,0.00,,,0.02,0.00,VWS V14.01,2013-12-06 07:17:00,
2013-12-06 02:20:00,33.0,29.1,30.11,North,350,0.0,5.1,86,0.00,,,0.02,0.00,VWS V14.01,2013-12-06 07:20:00,
2013-12-06 02:22:00,33.0,29.1,30.11,North,350,0.0,1.7,86,0.00,,,0.02,0.00,VWS V14.01,2013-12-06 07:22:00,
2013-12-06 02:25:00,33.0,29.4,30.11,NW,325,0.0,3.4,86,0.00,,,0.02,0.00,VWS V14.01,2013-12-06 07:25:00,
2013-12-06 02:27:00,33.0,29.1,30.11,NW,306,1.9,1.9,86,0.00,,,0.02,0.00,VWS V14.01,2013-12-06 07:27:00,
2013-12-06 02:30:00,33.0,29.4,30.11,WNW,299,0.0,3.4,86,0.00,,,0.02,0.00,VWS V14.01,2013-12-06 07:30:00,
2013-12-06 02:32:00,33.0,29.4,30.12,West,280,0.0,6.8,86,0.00,,,0.02,0.00,VWS V14.01,2013-12-06 07:32:00,
2013-12-06 02:35:00,33.0,29.4,30.12,West,280,0.0,6.8,86,0.00,,,0.02,0.00,VWS V14.01,2013-12-06 07:35:00,
2013-12-06 02:37:00,33.0,29.4,30.13,West,281,0.0,3.4,86,0.00,,,0.02,0.00,VWS V14.01,2013-12-06 07:37:00,
2013-12-06 02:40:00,33.0,29.4,30.12,West,281,0.0,3.4,86,0.00,,,0.02,0.00,VWS V14.01,2013-12-06 07:40:00,
2013-12-06 02:42:00,33.0,29.4,30.12,West,273,3.8,5.1,86,0.00,,,0.02,0.00,VWS V14.01,2013-12-06 07:42:00,
2013-12-06 02:45:00,33.0,29.4,30.14,NNW,340,0.0,6.8,86,0.00,,,0.02,0.00,VWS V14.01,2013-12-06 07:45:00,
2013-12-06 02:47:00,33.0,29.4,30.14,NNW,340,0.0,0.0,86,0.00,,,0.02,0.00,VWS V14.01,2013-12-06 07:47:00,
2013-12-06 02:50:00,33.1,29.5,30.14,NNW,340,0.0,0.0,86,0.00,,,0.02,0.00,VWS V14.01,2013-12-06 07:50:00,
2013-12-06 02:52:00,33.1,29.5,30.13,NNW,340,0.0,0.0,86,0.00,,,0.02,0.00,VWS V14.01,2013-12-06 07:52:00,
2013-12-06 02:55:00,33.1,29.5,30.13,NNW,340,0.0,0.0,86,0.00,,,0.02,0.00,VWS V14.01,2013-12-06 07:55:00,
2013-12-06 02:57:00,33.1,29.5,30.13,NNW,340,0.0,1.7,86,0.00,,,0.02,0.00,VWS V14.01,2013-12-06 07:57:00,
2013-12-06 03:00:00,33.0,29.4,30.13,NNW,340,0.0,1.7,86,0.00,,,0.02,0.00,VWS V14.01,2013-12-06 08:00:00,
2013-12-06 03:02:00,33.0,29.4,30.13,NNW,340,0.0,0.0,86,0.00,,,0.02,0.00,VWS V14.01,2013-12-06 08:02:00,
2013-12-06 03:05:00,32.9,29.0,30.13,West,271,0.0,6.8,86,0.00,,,0.02,0.00,VWS V14.01,2013-12-06 08:05:00,
2013-12-06 03:07:00,32.8,29.0,30.14,West,274,0.0,1.7,86,0.00,,,0.02,0.00,VWS V14.01,2013-12-06 08:07:00,
2013-12-06 03:10:00,32.8,29.2,30.14,West,275,0.0,3.4,86,0.00,,,0.02,0.00,VWS V14.01,2013-12-06 08:10:00,
2013-12-06 03:12:00,32.8,29.2,30.13,NNE,33,5.7,5.7,86,0.00,,,0.02,0.00,VWS V14.01,2013-12-06 08:12:00,
2013-12-06 03:15:00,32.7,29.1,30.13,NW,307,0.0,6.8,86,0.00,,,0.02,0.00,VWS V14.01,2013-12-06 08:15:00,
2013-12-06 03:17:00,32.7,29.1,30.13,NW,307,0.0,0.0,86,0.00,,,0.02,0.00,VWS V14.01,2013-12-06 08:17:00,
2013-12-06 03:20:00,32.7,29.1,30.13,NW,307,0.0,1.7,86,0.00,,,0.02,0.00,VWS V14.01,2013-12-06 08:20:00,
2013-12-06 03:22:00,32.7,29.1,30.13,NW,307,0.0,0.0,86,0.00,,,0.02,0.00,VWS V14.01,2013-12-06 08:22:00,
2013-12-06 03:25:00,32.7,29.1,30.14,NW,307,0.0,0.0,86,0.00,,,0.02,0.00,VWS V14.01,2013-12-06 08:25:00,
2013-12-06 03:27:00,32.7,29.1,30.14,NW,307,0.0,0.0,86,0.00,,,0.02,0.00,VWS V14.01,2013-12-06 08:27:00,
2013-12-06 03:30:00,32.7,29.1,30.14,NW,307,0.0,0.0,86,0.00,,,0.02,0.00,VWS V14.01,2013-12-06 08:30:00,
2013-12-06 03:32:00,32.7,29.1,30.14,WNW,302,0.0,3.4,86,0.00,,,0.02,0.00,VWS V14.01,2013-12-06 08:32:00,
2013-12-06 03:35:00,32.6,29.0,30.15,WNW,285,0.0,3.4,86,0.00,,,0.02,0.00,VWS V14.01,2013-12-06 08:35:00,
2013-12-06 03:37:00,32.6,29.0,30.15,WNW,285,0.0,0.0,86,0.00,,,0.02,0.00,VWS V14.01,2013-12-06 08:37:00,
2013-12-06 03:40:00,32.5,28.9,30.15,WNW,284,0.0,0.0,86,0.00,,,0.02,0.00,VWS V14.01,2013-12-06 08:40:00,
2013-12-06 03:42:00,32.5,28.9,30.15,WNW,284,0.0,0.0,86,0.00,,,0.02,0.00,VWS V14.01,2013-12-06 08:42:00,
2013-12-06 03:45:00,32.5,28.9,30.15,West,272,0.0,5.1,86,0.00,,,0.02,0.00,VWS V14.01,2013-12-06 08:45:00,
2013-12-06 03:47:00,32.5,28.9,30.14,West,273,0.0,0.0,86,0.00,,,0.02,0.00,VWS V14.01,2013-12-06 08:47:00,
2013-12-06 03:50:00,32.4,28.8,30.14,West,273,0.0,0.0,86,0.00,,,0.02,0.00,VWS V14.01,2013-12-06 08:50:00,
2013-12-06 03:52:00,32.4,28.8,30.14,West,273,0.0,0.0,86,0.00,,,0.02,0.00,VWS V14.01,2013-12-06 08:52:00,
2013-12-06 03:55:00,32.4,28.8,30.14,West,273,0.0,0.0,86,0.00,,,0.02,0.00,VWS V14.01,2013-12-06 08:55:00,
2013-12-06 03:57:00,32.4,28.8,30.13,West,273,0.0,0.0,86,0.00,,,0.02,0.00,VWS V14.01,2013-12-06 08:57:00,
2013-12-06 04:00:00,32.4,28.8,30.14,West,273,0.0,1.7,86,0.00,,,0.02,0.00,VWS V14.01,2013-12-06 09:00:00,
2013-12-06 04:02:00,32.3,28.7,30.14,West,273,0.0,0.0,86,0.00,,,0.02,0.00,VWS V14.01,2013-12-06 09:02:00,
2013-12-06 04:05:00,32.3,28.7,30.14,West,273,0.0,1.7,86,0.00,,,0.02,0.00,VWS V14.01,2013-12-06 09:05:00,
2013-12-06 04:07:00,32.3,28.7,30.14,West,273,0.0,1.7,86,0.00,,,0.02,0.00,VWS V14.01,2013-12-06 09:07:00,
2013-12-06 04:10:00,32.2,28.6,30.14,West,265,0.0,5.1,86,0.00,,,0.02,0.00,VWS V14.01,2013-12-06 09:10:00,
2013-12-06 04:12:00,32.1,28.5,30.15,West,264,0.0,1.7,86,0.00,,,0.02,0.00,VWS V14.01,2013-12-06 09:12:00,
2013-12-06 04:15:00,32.1,28.5,30.15,West,264,0.0,1.7,86,0.00,,,0.02,0.00,VWS V14.01,2013-12-06 09:15:00,
2013-12-06 04:17:00,32.1,28.5,30.15,West,265,3.8,5.1,86,0.00,,,0.02,0.00,VWS V14.01,2013-12-06 09:17:00,
2013-12-06 04:20:00,32.0,28.4,30.15,WNW,292,0.0,5.1,86,0.00,,,0.02,0.00,VWS V14.01,2013-12-06 09:20:00,
2013-12-06 04:22:00,32.0,28.4,30.15,WNW,290,0.0,3.4,86,0.00,,,0.02,0.00,VWS V14.01,2013-12-06 09:22:00,
2013-12-06 04:25:00,31.9,28.3,30.15,WNW,292,0.0,3.4,86,0.00,,,0.02,0.00,VWS V14.01,2013-12-06 09:25:00,
2013-12-06 04:27:00,31.9,28.3,30.15,WNW,298,0.0,5.1,86,0.00,,,0.02,0.00,VWS V14.01,2013-12-06 09:27:00,
2013-12-06 04:30:00,31.9,28.3,30.16,WNW,284,1.9,5.1,86,0.00,,,0.02,0.00,VWS V14.01,2013-12-06 09:30:00,
2013-12-06 04:32:00,31.8,28.2,30.16,WNW,295,0.0,3.4,86,0.00,,,0.02,0.00,VWS V14.01,2013-12-06 09:32:00,
2013-12-06 04:35:00,31.8,28.2,30.16,West,279,0.0,6.8,86,0.00,,,0.02,0.00,VWS V14.01,2013-12-06 09:35:00,
2013-12-06 04:37:00,31.7,28.1,30.17,West,280,0.0,3.4,86,0.00,,,0.02,0.00,VWS V14.01,2013-12-06 09:37:00,
2013-12-06 04:40:00,31.8,28.2,30.17,NW,308,3.8,6.8,86,0.00,,,0.02,0.00,VWS V14.01,2013-12-06 09:40:00,
2013-12-06 04:42:00,31.8,28.2,30.17,NW,308,0.0,3.4,86,0.00,,,0.02,0.00,VWS V14.01,2013-12-06 09:42:00,
2013-12-06 04:45:00,31.8,28.2,30.17,WNW,283,0.0,3.4,86,0.00,,,0.02,0.00,VWS V14.01,2013-12-06 09:45:00,
2013-12-06 04:47:00,31.8,28.5,30.17,WNW,299,0.0,3.4,87,0.00,,,0.02,0.00,VWS V14.01,2013-12-06 09:47:00,
2013-12-06 04:50:00,31.8,28.5,30.17,WNW,299,0.0,3.4,87,0.00,,,0.02,0.00,VWS V14.01,2013-12-06 09:50:00,
2013-12-06 04:52:00,31.8,28.5,30.17,WNW,293,0.0,3.4,87,0.00,,,0.02,0.00,VWS V14.01,2013-12-06 09:52:00,
2013-12-06 04:55:00,31.7,28.4,30.17,WNW,293,0.0,3.4,87,0.00,,,0.02,0.00,VWS V14.01,2013-12-06 09:55:00,
2013-12-06 04:57:00,31.6,28.3,30.17,NNW,337,0.0,5.1,87,0.00,,,0.02,0.00,VWS V14.01,2013-12-06 09:57:00,
2013-12-06 05:00:00,31.5,27.9,30.17,NW,325,0.0,5.1,86,0.00,,,0.02,0.00,VWS V14.01,2013-12-06 10:00:00,
2013-12-06 05:02:00,31.4,28.1,30.17,NW,314,0.0,5.1,87,0.00,,,0.02,0.00,VWS V14.01,2013-12-06 10:02:00,
2013-12-06 05:05:00,31.4,28.1,30.18,WNW,297,3.8,6.8,87,0.00,,,0.02,0.00,VWS V14.01,2013-12-06 10:05:00,
2013-12-06 05:07:00,31.3,28.0,30.18,NW,312,0.0,8.5,87,0.00,,,0.02,0.00,VWS V14.01,2013-12-06 10:07:00,
2013-12-06 05:10:00,31.3,28.0,30.18,NNW,340,0.0,8.5,87,0.00,,,0.02,0.00,VWS V14.01,2013-12-06 10:10:00,
2013-12-06 05:12:00,31.3,28.0,30.18,West,269,0.0,6.8,87,0.00,,,0.02,0.00,VWS V14.01,2013-12-06 10:12:00,
2013-12-06 05:15:00,31.2,27.9,30.18,WNW,300,1.9,6.8,87,0.00,,,0.02,0.00,VWS V14.01,2013-12-06 10:15:00,
2013-12-06 05:17:00,31.2,27.9,30.18,NW,314,0.0,5.1,87,0.00,,,0.02,0.00,VWS V14.01,2013-12-06 10:17:00,
2013-12-06 05:20:00,31.1,27.5,30.17,NW,310,0.0,5.1,86,0.00,,,0.02,0.00,VWS V14.01,2013-12-06 10:20:00,
2013-12-06 05:22:00,31.1,27.5,30.17,NW,310,0.0,0.0,86,0.00,,,0.02,0.00,VWS V14.01,2013-12-06 10:22:00,
2013-12-06 05:25:00,31.1,27.5,30.17,NW,310,0.0,3.4,86,0.00,,,0.02,0.00,VWS V14.01,2013-12-06 10:25:00,
2013-12-06 05:27:00,31.1,27.5,30.17,North,355,0.0,5.1,86,0.00,,,0.02,0.00,VWS V14.01,2013-12-06 10:27:00,
2013-12-06 05:30:00,31.0,27.5,30.18,North,355,1.9,5.1,86,0.00,,,0.02,0.00,VWS V14.01,2013-12-06 10:30:00,
2013-12-06 05:32:00,31.0,27.5,30.18,North,355,0.0,1.7,86,0.00,,,0.02,0.00,VWS V14.01,2013-12-06 10:32:00,
2013-12-06 05:35:00,31.0,27.5,30.18,WNW,302,0.0,5.1,86,0.00,,,0.02,0.00,VWS V14.01,2013-12-06 10:35:00,
2013-12-06 05:37:00,31.0,27.5,30.18,NW,304,0.0,0.0,86,0.00,,,0.02,0.00,VWS V14.01,2013-12-06 10:37:00,
2013-12-06 05:40:00,31.0,27.5,30.18,NW,304,0.0,0.0,86,0.00,,,0.02,0.00,VWS V14.01,2013-12-06 10:40:00,
2013-12-06 05:42:00,31.0,27.7,30.19,NW,304,0.0,1.7,87,0.00,,,0.02,0.00,VWS V14.01,2013-12-06 10:42:00,
2013-12-06 05:45:00,31.0,27.7,30.19,NW,304,0.0,1.7,87,0.00,,,0.02,0.00,VWS V14.01,2013-12-06 10:45:00,
2013-12-06 05:47:00,31.0,27.7,30.18,WNW,303,0.0,0.0,87,0.00,,,0.02,0.00,VWS V14.01,2013-12-06 10:47:00,
2013-12-06 05:50:00,31.0,27.7,30.18,NW,305,0.0,3.4,87,0.00,,,0.02,0.00,VWS V14.01,2013-12-06 10:50:00,
2013-12-06 05:52:00,31.1,27.8,30.19,NW,304,0.0,0.0,87,0.00,,,0.02,0.00,VWS V14.01,2013-12-06 10:52:00,
2013-12-06 05:55:00,31.1,27.8,30.19,NW,304,0.0,0.0,87,0.00,,,0.02,0.00,VWS V14.01,2013-12-06 10:55:00,
2013-12-06 05:57:00,31.1,27.8,30.19,West,279,3.8,5.1,87,0.00,,,0.02,0.00,VWS V14.01,2013-12-06 10:57:00,
2013-12-06 06:00:00,31.0,27.7,30.19,West,279,0.0,5.1,87,0.00,,,0.02,0.00,VWS V14.01,2013-12-06 11:00:00,
2013-12-06 06:02:00,31.0,27.7,30.19,West,279,0.0,0.0,87,0.00,,,0.02,0.00,VWS V14.01,2013-12-06 11:02:00,
2013-12-06 06:05:00,31.0,27.7,30.19,West,279,0.0,1.7,87,0.00,,,0.02,0.00,VWS V14.01,2013-12-06 11:05:00,
2013-12-06 06:07:00,31.0,27.7,30.19,West,279,0.0,0.0,87,0.00,,,0.02,0.00,VWS V14.01,2013-12-06 11:07:00,
2013-12-06 06:10:00,31.0,27.7,30.19,West,279,0.0,0.0,87,0.00,,,0.02,0.00,VWS V14.01,2013-12-06 11:10:00,
2013-12-06 06:12:00,31.0,27.7,30.19,West,279,0.0,0.0,87,0.00,,,0.02,0.00,VWS V14.01,2013-12-06 11:12:00,
2013-12-06 06:15:00,31.0,27.7,30.19,West,279,0.0,0.0,87,0.00,,,0.02,0.00,VWS V14.01,2013-12-06 11:15:00,
2013-12-06 06:17:00,31.1,27.8,30.19,West,279,0.0,0.0,87,0.00,,,0.02,0.00,VWS V14.01,2013-12-06 11:17:00,
2013-12-06 06:20:00,31.1,27.8,30.20,West,279,1.9,1.9,87,0.00,,,0.02,0.00,VWS V14.01,2013-12-06 11:20:00,
2013-12-06 06:22:00,31.1,27.8,30.20,West,279,0.0,1.7,87,0.00,,,0.02,0.00,VWS V14.01,2013-12-06 11:22:00,
2013-12-06 06:25:00,31.0,27.7,30.20,West,268,0.0,3.4,87,0.00,,,0.02,0.00,VWS V14.01,2013-12-06 11:25:00,
2013-12-06 06:27:00,30.9,27.6,30.20,NW,308,1.9,3.4,87,0.00,,,0.02,0.00,VWS V14.01,2013-12-06 11:27:00,
2013-12-06 06:30:00,30.9,27.6,30.20,NW,307,0.0,3.4,87,0.00,,,0.02,0.00,VWS V14.01,2013-12-06 11:30:00,
2013-12-06 06:32:00,30.8,27.5,30.20,North,360,0.0,6.8,87,0.00,,,0.02,0.00,VWS V14.01,2013-12-06 11:32:00,
2013-12-06 06:35:00,30.8,27.5,30.20,NNW,327,0.0,6.8,87,0.00,,,0.02,0.00,VWS V14.01,2013-12-06 11:35:00,
2013-12-06 06:37:00,30.8,27.5,30.20,NNW,327,0.0,0.0,87,0.00,,,0.02,0.00,VWS V14.01,2013-12-06 11:37:00,
2013-12-06 06:40:00,30.8,27.5,30.20,North,5,0.0,3.4,87,0.00,,,0.02,0.00,VWS V14.01,2013-12-06 11:40:00,
2013-12-06 06:42:00,30.8,27.5,30.20,NW,317,1.9,1.9,87,0.00,,,0.02,0.00,VWS V14.01,2013-12-06 11:42:00,
2013-12-06 06:45:00,30.8,27.5,30.20,NW,317,0.0,1.7,87,0.00,,,0.02,0.00,VWS V14.01,2013-12-06 11:45:00,
2013-12-06 06:47:00,30.8,27.5,30.20,NW,317,0.0,0.0,87,0.00,,,0.02,0.00,VWS V14.01,2013-12-06 11:47:00,
2013-12-06 06:50:00,30.8,27.5,30.20,NW,317,0.0,3.4,87,0.00,,,0.02,0.00,VWS V14.01,2013-12-06 11:50:00,
2013-12-06 06:52:00,30.8,27.5,30.20,NW,317,0.0,1.7,87,0.00,,,0.02,0.00,VWS V14.01,2013-12-06 11:52:00,
2013-12-06 06:55:00,30.8,27.5,30.20,WNW,284,0.0,8.5,87,0.00,,,0.02,0.00,VWS V14.01,2013-12-06 11:55:00,
2013-12-06 06:57:00,30.8,27.5,30.20,NW,310,0.0,5.1,87,0.00,,,0.02,0.00,VWS V14.01,2013-12-06 11:57:00,
2013-12-06 07:00:00,30.8,27.5,30.20,NW,311,1.9,5.1,87,0.00,,,0.02,0.00,VWS V14.01,2013-12-06 12:00:00,
2013-12-06 07:02:00,30.7,27.4,30.20,NW,306,0.0,3.4,87,0.00,,,0.02,0.00,VWS V14.01,2013-12-06 12:02:00,
2013-12-06 07:05:00,30.7,27.1,30.20,NW,309,0.0,3.4,86,0.00,,,0.02,0.00,VWS V14.01,2013-12-06 12:05:00,
2013-12-06 07:07:00,30.6,27.1,30.20,NNW,343,3.8,5.1,86,0.00,,,0.02,0.00,VWS V14.01,2013-12-06 12:07:00,
2013-12-06 07:10:00,30.6,27.1,30.20,NW,315,0.0,5.1,86,0.00,,,0.02,0.00,VWS V14.01,2013-12-06 12:10:00,
2013-12-06 07:12:00,30.6,27.1,30.19,NNW,342,0.0,3.4,86,0.00,,,0.02,0.00,VWS V14.01,2013-12-06 12:12:00,
2013-12-06 07:15:00,30.6,27.1,30.19,NNW,341,0.0,3.4,86,0.00,,,0.02,0.00,VWS V14.01,2013-12-06 12:15:00,
2013-12-06 07:17:00,30.5,27.0,30.19,WNW,292,0.0,5.1,86,0.00,,,0.02,0.00,VWS V14.01,2013-12-06 12:17:00,
2013-12-06 07:20:00,30.5,27.2,30.18,NNW,335,3.8,5.1,87,0.00,,,0.02,0.00,VWS V14.01,2013-12-06 12:20:00,
2013-12-06 07:22:00,30.5,27.0,30.18,NNW,335,0.0,3.4,86,0.00,,,0.02,0.00,VWS V14.01,2013-12-06 12:22:00,
2013-12-06 07:25:00,30.5,27.0,30.18,NNW,335,0.0,3.4,86,0.00,,,0.02,0.00,VWS V14.01,2013-12-06 12:25:00,
2013-12-06 07:27:00,30.5,27.0,30.18,NNW,335,0.0,0.0,86,0.00,,,0.02,0.00,VWS V14.01,2013-12-06 12:27:00,
2013-12-06 07:30:00,30.6,27.1,30.18,NNW,335,0.0,0.0,86,0.00,,,0.02,0.00,VWS V14.01,2013-12-06 12:30:00,
2013-12-06 07:32:00,30.6,27.3,30.18,NNW,335,0.0,0.0,87,0.00,,,0.02,0.00,VWS V14.01,2013-12-06 12:32:00,
2013-12-06 07:35:00,30.6,27.3,30.18,NW,317,1.9,3.4,87,0.00,,,0.02,0.00,VWS V14.01,2013-12-06 12:35:00,
2013-12-06 07:37:00,30.6,27.3,30.18,NW,317,0.0,1.7,87,0.00,,,0.02,0.00,VWS V14.01,2013-12-06 12:37:00,
2013-12-06 07:40:00,30.5,27.2,30.18,NW,315,0.0,1.7,87,0.00,,,0.02,0.00,VWS V14.01,2013-12-06 12:40:00,
2013-12-06 07:42:00,30.6,27.3,30.20,NW,307,0.0,3.4,87,0.00,,,0.02,0.00,VWS V14.01,2013-12-06 12:42:00,
2013-12-06 07:45:00,30.6,27.3,30.20,NW,304,0.0,3.4,87,0.00,,,0.02,0.00,VWS V14.01,2013-12-06 12:45:00,
2013-12-06 07:47:00,30.6,27.3,30.20,NW,304,0.0,0.0,87,0.00,,,0.02,0.00,VWS V14.01,2013-12-06 12:47:00,
2013-12-06 07:50:00,30.6,27.3,30.20,NW,304,0.0,0.0,87,0.00,,,0.02,0.00,VWS V14.01,2013-12-06 12:50:00,
2013-12-06 07:52:00,30.6,27.3,30.20,NW,304,0.0,1.7,87,0.00,,,0.02,0.00,VWS V14.01,2013-12-06 12:52:00,
2013-12-06 07:55:00,30.6,27.1,30.20,NW,304,0.0,1.7,86,0.00,,,0.02,0.00,VWS V14.01,2013-12-06 12:55:00,
2013-12-06 07:58:00,30.6,27.1,30.20,NW,304,0.0,1.7,86,0.00,,,0.02,0.00,VWS V14.01,2013-12-06 12:58:00,
2013-12-06 08:00:00,30.7,27.1,30.20,West,267,1.9,5.1,86,0.00,,,0.02,0.00,VWS V14.01,2013-12-06 13:00:00,
2013-12-06 08:02:00,30.7,27.1,30.20,West,267,0.0,1.7,86,0.00,,,0.02,0.00,VWS V14.01,2013-12-06 13:02:00,
2013-12-06 08:05:00,30.7,27.1,30.20,West,268,0.0,1.7,86,0.00,,,0.02,0.00,VWS V14.01,2013-12-06 13:05:00,
2013-12-06 08:08:00,30.7,27.1,30.20,West,265,0.0,3.4,86,0.00,,,0.02,0.00,VWS V14.01,2013-12-06 13:08:00,
2013-12-06 08:10:00,30.7,27.1,30.20,West,265,0.0,3.4,86,0.00,,,0.02,0.00,VWS V14.01,2013-12-06 13:10:00,
2013-12-06 08:12:00,30.7,27.1,30.20,West,265,0.0,0.0,86,0.00,,,0.02,0.00,VWS V14.01,2013-12-06 13:12:00,
2013-12-06 08:15:00,30.8,27.2,30.20,West,265,0.0,0.0,86,0.00,,,0.02,0.00,VWS V14.01,2013-12-06 13:15:00,
2013-12-06 08:18:00,30.8,27.2,30.20,West,265,0.0,0.0,86,0.00,,,0.02,5.00,VWS V14.01,2013-12-06 13:18:00,
2013-12-06 08:20:00,30.8,27.2,30.20,West,265,0.0,0.0,86,0.00,,,0.02,5.00,VWS V14.01,2013-12-06 13:20:00,
2013-12-06 08:23:00,30.8,27.2,30.20,West,265,0.0,0.0,86,0.00,,,0.02,5.00,VWS V14.01,2013-12-06 13:23:00,
2013-12-06 08:25:00,30.8,27.2,30.20,West,265,0.0,0.0,86,0.00,,,0.02,7.00,VWS V14.01,2013-12-06 13:25:00,
2013-12-06 08:28:00,30.8,27.2,30.20,West,265,0.0,0.0,86,0.00,,,0.02,5.00,VWS V14.01,2013-12-06 13:28:00,
2013-12-06 08:30:00,30.8,27.2,30.20,West,265,1.9,1.9,86,0.00,,,0.02,5.00,VWS V14.01,2013-12-06 13:30:00,
2013-12-06 08:33:00,30.8,27.2,30.22,West,265,0.0,3.4,86,0.00,,,0.02,5.00,VWS V14.01,2013-12-06 13:33:00,
2013-12-06 08:35:00,30.8,27.2,30.21,West,265,0.0,3.4,86,0.00,,,0.02,5.00,VWS V14.01,2013-12-06 13:35:00,
2013-12-06 08:38:00,30.8,27.2,30.21,West,265,0.0,0.0,86,0.00,,,0.02,7.00,VWS V14.01,2013-12-06 13:38:00,
2013-12-06 08:40:00,30.8,27.2,30.22,West,265,0.0,0.0,86,0.00,,,0.02,7.00,VWS V14.01,2013-12-06 13:40:00,
2013-12-06 08:43:00,30.9,27.4,30.23,West,265,0.0,1.7,86,0.00,,,0.02,9.00,VWS V14.01,2013-12-06 13:43:00,
2013-12-06 08:45:00,30.9,27.4,30.23,West,265,0.0,3.4,86,0.00,,,0.02,14.00,VWS V14.01,2013-12-06 13:45:00,
2013-12-06 08:48:00,30.9,27.4,30.23,West,265,0.0,0.0,86,0.00,,,0.02,19.00,VWS V14.01,2013-12-06 13:48:00,
2013-12-06 08:50:00,30.9,27.4,30.22,West,265,0.0,1.7,86,0.00,,,0.02,21.00,VWS V14.01,2013-12-06 13:50:00,
2013-12-06 08:53:00,30.9,27.4,30.22,West,265,0.0,3.4,86,0.00,,,0.02,25.00,VWS V14.01,2013-12-06 13:53:00,
2013-12-06 08:55:00,30.9,27.4,30.23,West,263,0.0,3.4,86,0.00,,,0.02,25.00,VWS V14.01,2013-12-06 13:55:00,
2013-12-06 08:58:00,30.9,27.4,30.22,West,268,0.0,3.4,86,0.00,,,0.02,32.00,VWS V14.01,2013-12-06 13:58:00,
2013-12-06 09:00:00,30.9,27.4,30.23,West,268,0.0,3.4,86,0.00,,,0.02,28.00,VWS V14.01,2013-12-06 14:00:00,
2013-12-06 09:03:00,30.9,27.4,30.23,West,269,0.0,1.7,86,0.00,,,0.02,28.00,VWS V14.01,2013-12-06 14:03:00,
2013-12-06 09:05:00,30.9,27.4,30.23,West,269,0.0,3.4,86,0.00,,,0.02,33.00,VWS V14.01,2013-12-06 14:05:00,
2013-12-06 09:08:00,31.0,27.5,30.23,West,269,0.0,3.4,86,0.00,,,0.02,32.00,VWS V14.01,2013-12-06 14:08:00,
2013-12-06 09:10:00,31.0,27.5,30.23,WNW,290,1.9,3.4,86,0.00,,,0.02,33.00,VWS V14.01,2013-12-06 14:10:00,
2013-12-06 09:13:00,31.0,27.5,30.23,WNW,287,0.0,3.4,86,0.00,,,0.02,35.00,VWS V14.01,2013-12-06 14:13:00,
2013-12-06 09:15:00,31.0,27.5,30.23,WNW,286,0.0,3.4,86,0.00,,,0.02,42.00,VWS V14.01,2013-12-06 14:15:00,
2013-12-06 09:18:00,31.0,27.5,30.23,WNW,287,0.0,1.7,86,0.00,,,0.02,49.00,VWS V14.01,2013-12-06 14:18:00,
2013-12-06 09:20:00,31.1,27.5,30.24,WNW,287,0.0,1.7,86,0.00,,,0.02,49.00,VWS V14.01,2013-12-06 14:20:00,
2013-12-06 09:23:00,31.1,27.5,30.25,WNW,292,0.0,5.1,86,0.00,,,0.02,39.00,VWS V14.01,2013-12-06 14:23:00,
2013-12-06 09:25:00,31.1,27.3,30.25,WNW,293,0.0,5.1,86,0.00,,,0.02,37.00,VWS V14.01,2013-12-06 14:25:00,
2013-12-06 09:28:00,31.1,27.3,30.26,NW,310,0.0,3.4,86,0.00,,,0.02,35.00,VWS V14.01,2013-12-06 14:28:00,
2013-12-06 09:30:00,31.1,27.3,30.26,NW,310,0.0,3.4,86,0.00,,,0.02,33.00,VWS V14.01,2013-12-06 14:30:00,
2013-12-06 09:33:00,31.2,27.4,30.26,WNW,290,0.0,5.1,86,0.00,,,0.02,30.00,VWS V14.01,2013-12-06 14:33:00,
2013-12-06 09:35:00,31.2,27.4,30.26,WNW,290,0.0,5.1,86,0.00,,,0.02,25.00,VWS V14.01,2013-12-06 14:35:00,
2013-12-06 09:38:00,31.2,27.4,30.26,West,265,1.9,5.1,86,0.00,,,0.02,23.00,VWS V14.01,2013-12-06 14:38:00,
2013-12-06 09:40:00,31.2,27.4,30.26,West,266,0.0,5.1,86,0.00,,,0.02,25.00,VWS V14.01,2013-12-06 14:40:00,
2013-12-06 09:43:00,31.2,27.4,30.26,NW,319,0.0,3.4,86,0.00,,,0.02,25.00,VWS V14.01,2013-12-06 14:43:00,
2013-12-06 09:45:00,31.1,27.3,30.25,NW,319,0.0,3.4,86,0.00,,,0.02,23.00,VWS V14.01,2013-12-06 14:45:00,
2013-12-06 09:48:00,31.1,27.3,30.25,NW,320,0.0,8.5,86,0.00,,,0.02,25.00,VWS V14.01,2013-12-06 14:48:00,
2013-12-06 09:50:00,31.1,27.3,30.25,NW,320,0.0,8.5,86,0.00,,,0.02,26.00,VWS V14.01,2013-12-06 14:50:00,
2013-12-06 09:53:00,31.1,27.3,30.24,NW,319,0.0,0.0,86,0.00,,,0.02,28.00,VWS V14.01,2013-12-06 14:53:00,
2013-12-06 09:55:00,31.1,27.3,30.24,West,275,3.8,3.8,86,0.00,,,0.02,30.00,VWS V14.01,2013-12-06 14:55:00,
2013-12-06 09:58:00,31.1,27.3,30.24,West,275,0.0,3.4,86,0.00,,,0.02,35.00,VWS V14.01,2013-12-06 14:58:00,
2013-12-06 10:00:00,31.1,27.3,30.23,West,275,0.0,3.4,86,0.00,,,0.02,42.00,VWS V14.01,2013-12-06 15:00:00,
2013-12-06 10:03:00,31.1,27.3,30.24,West,276,0.0,1.7,86,0.00,,,0.02,42.00,VWS V14.01,2013-12-06 15:03:00,
2013-12-06 10:05:00,31.1,27.3,30.24,West,276,0.0,1.7,86,0.00,,,0.02,47.00,VWS V14.01,2013-12-06 15:05:00,
2013-12-06 10:08:00,31.1,27.3,30.23,West,276,0.0,0.0,86,0.00,,,0.02,46.00,VWS V14.01,2013-12-06 15:08:00,
2013-12-06 10:10:00,31.2,27.4,30.24,West,276,0.0,0.0,86,0.00,,,0.02,46.00,VWS V14.01,2013-12-06 15:10:00,
2013-12-06 10:13:00,31.2,27.4,30.24,West,276,0.0,0.0,86,0.00,,,0.02,49.00,VWS V14.01,2013-12-06 15:13:00,
2013-12-06 10:15:00,31.2,27.4,30.24,West,276,0.0,1.7,86,0.00,,,0.02,54.00,VWS V14.01,2013-12-06 15:15:00,
2013-12-06 10:18:00,31.2,27.4,30.23,West,276,0.0,0.0,86,0.00,,,0.02,54.00,VWS V14.01,2013-12-06 15:18:00,
2013-12-06 10:20:00,31.2,27.4,30.23,West,276,0.0,0.0,86,0.00,,,0.02,49.00,VWS V14.01,2013-12-06 15:20:00,
2013-12-06 10:23:00,31.3,27.5,30.23,West,276,0.0,0.0,86,0.00,,,0.02,47.00,VWS V14.01,2013-12-06 15:23:00,
2013-12-06 10:25:00,31.3,27.5,30.23,West,276,0.0,0.0,86,0.00,,,0.02,49.00,VWS V14.01,2013-12-06 15:25:00,
2013-12-06 10:28:00,31.3,27.5,30.23,West,276,0.0,0.0,86,0.00,,,0.02,49.00,VWS V14.01,2013-12-06 15:28:00,
2013-12-06 10:30:00,31.4,27.6,30.23,West,276,0.0,0.0,86,0.00,,,0.02,46.00,VWS V14.01,2013-12-06 15:30:00,
2013-12-06 10:33:00,31.4,27.6,30.23,West,276,0.0,0.0,86,0.00,,,0.02,53.00,VWS V14.01,2013-12-06 15:33:00,
2013-12-06 10:35:00,31.4,27.6,30.23,West,276,0.0,0.0,86,0.00,,,0.02,51.00,VWS V14.01,2013-12-06 15:35:00,
2013-12-06 10:38:00,31.4,27.6,30.23,West,276,0.0,0.0,86,0.00,,,0.02,58.00,VWS V14.01,2013-12-06 15:38:00,
2013-12-06 10:40:00,31.4,27.6,30.23,West,276,0.0,0.0,86,0.00,,,0.02,63.00,VWS V14.01,2013-12-06 15:40:00,
2013-12-06 10:43:00,31.4,27.6,30.23,West,276,0.0,0.0,86,0.00,,,0.02,67.00,VWS V14.01,2013-12-06 15:43:00,
2013-12-06 10:45:00,31.4,27.6,30.23,West,276,0.0,0.0,86,0.00,,,0.02,88.00,VWS V14.01,2013-12-06 15:45:00,
2013-12-06 10:48:00,31.4,27.6,30.23,West,276,0.0,3.4,86,0.00,,,0.02,79.00,VWS V14.01,2013-12-06 15:48:00,
2013-12-06 10:50:00,31.5,27.7,30.24,West,276,0.0,3.4,86,0.00,,,0.02,79.00,VWS V14.01,2013-12-06 15:50:00,
2013-12-06 10:53:00,31.6,27.8,30.24,West,276,0.0,0.0,86,0.00,,,0.02,77.00,VWS V14.01,2013-12-06 15:53:00,
2013-12-06 10:55:00,31.7,27.9,30.24,West,276,0.0,0.0,86,0.00,,,0.02,74.00,VWS V14.01,2013-12-06 15:55:00,
2013-12-06 10:58:00,31.8,28.0,30.24,West,276,0.0,3.4,86,0.00,,,0.02,76.00,VWS V14.01,2013-12-06 15:58:00,
2013-12-06 11:00:00,31.8,28.0,30.24,West,276,0.0,3.4,86,0.00,,,0.02,97.00,VWS V14.01,2013-12-06 16:00:00,
2013-12-06 11:03:00,31.9,28.1,30.24,West,276,0.0,0.0,86,0.00,,,0.02,105.00,VWS V14.01,2013-12-06 16:03:00,
2013-12-06 11:05:00,31.8,28.0,30.23,West,276,0.0,0.0,86,0.00,,,0.02,146.00,VWS V14.01,2013-12-06 16:05:00,
2013-12-06 11:08:00,31.8,28.0,30.23,West,276,1.9,1.9,86,0.00,,,0.02,183.00,VWS V14.01,2013-12-06 16:08:00,
2013-12-06 11:10:00,31.9,28.1,30.23,West,276,0.0,3.4,86,0.00,,,0.02,183.00,VWS V14.01,2013-12-06 16:10:00,
2013-12-06 11:13:00,32.0,28.2,30.24,West,276,0.0,1.7,86,0.00,,,0.02,153.00,VWS V14.01,2013-12-06 16:13:00,
2013-12-06 11:15:00,32.1,28.3,30.24,West,276,0.0,1.7,86,0.00,,,0.02,153.00,VWS V14.01,2013-12-06 16:15:00,
2013-12-06 11:18:00,32.1,28.3,30.24,West,276,0.0,3.4,86,0.00,,,0.02,142.00,VWS V14.01,2013-12-06 16:18:00,
2013-12-06 11:20:00,32.1,28.3,30.24,NNW,345,0.0,3.4,86,0.00,,,0.02,146.00,VWS V14.01,2013-12-06 16:20:00,
2013-12-06 11:23:00,32.1,28.3,30.24,NNW,338,3.8,5.1,86,0.00,,,0.02,135.00,VWS V14.01,2013-12-06 16:23:00,
2013-12-06 11:25:00,32.1,28.3,30.25,West,277,0.0,5.1,86,0.00,,,0.02,127.00,VWS V14.01,2013-12-06 16:25:00,
2013-12-06 11:28:00,32.1,28.3,30.25,West,277,0.0,1.7,86,0.00,,,0.02,128.00,VWS V14.01,2013-12-06 16:28:00,
2013-12-06 11:30:00,32.1,28.3,30.25,West,277,0.0,1.7,86,0.00,,,0.02,105.00,VWS V14.01,2013-12-06 16:30:00,
2013-12-06 11:33:00,32.0,28.2,30.25,West,271,3.8,5.1,86,0.00,,,0.02,95.00,VWS V14.01,2013-12-06 16:33:00,
2013-12-06 11:35:00,31.9,27.8,30.25,West,271,0.0,5.1,85,0.00,,,0.02,100.00,VWS V14.01,2013-12-06 16:35:00,
2013-12-06 11:38:00,31.9,27.8,30.25,West,268,0.0,6.8,85,0.00,,,0.02,84.00,VWS V14.01,2013-12-06 16:38:00,
2013-12-06 11:40:00,31.9,27.8,30.25,WNW,301,0.0,6.8,85,0.00,,,0.02,74.00,VWS V14.01,2013-12-06 16:40:00,
2013-12-06 11:43:00,31.9,27.8,30.25,NW,312,0.0,1.7,85,0.00,,,0.02,65.00,VWS V14.01,2013-12-06 16:43:00,
2013-12-06 11:45:00,31.8,27.7,30.25,West,263,0.0,6.8,85,0.00,,,0.02,62.00,VWS V14.01,2013-12-06 16:45:00,
2013-12-06 11:48:00,31.9,28.1,30.24,NW,311,0.0,3.4,86,0.01,,,0.03,74.00,VWS V14.01,2013-12-06 16:48:00,
2013-12-06 11:50:00,31.8,27.7,30.24,NNW,342,0.0,5.1,85,0.01,,,0.03,93.00,VWS V14.01,2013-12-06 16:50:00,
2013-12-06 11:53:00,31.9,27.8,30.25,WNW,298,0.0,3.4,85,0.01,,,0.03,69.00,VWS V14.01,2013-12-06 16:53:00,
2013-12-06 11:55:00,31.9,28.1,30.25,WNW,284,0.0,3.4,86,0.01,,,0.03,65.00,VWS V14.01,2013-12-06 16:55:00,
2013-12-06 11:58:00,32.0,27.9,30.24,WNW,284,0.0,0.0,85,0.01,,,0.03,51.00,VWS V14.01,2013-12-06 16:58:00,
2013-12-06 12:00:00,32.0,27.9,30.24,WNW,291,0.0,3.4,85,0.01,,,0.03,100.00,VWS V14.01,2013-12-06 17:00:00,
2013-12-06 12:03:00,32.0,27.9,30.23,WNW,296,0.0,1.7,85,0.01,,,0.03,102.00,VWS V14.01,2013-12-06 17:03:00,
2013-12-06 12:05:00,31.9,27.8,30.22,WNW,303,0.0,3.4,85,0.01,,,0.03,113.00,VWS V14.01,2013-12-06 17:05:00,
2013-12-06 12:08:00,31.9,27.8,30.22,NW,305,0.0,1.7,85,0.01,,,0.03,118.00,VWS V14.01,2013-12-06 17:08:00,
2013-12-06 12:10:00,31.9,27.8,30.23,NW,305,0.0,1.7,85,0.01,,,0.03,120.00,VWS V14.01,2013-12-06 17:10:00,
2013-12-06 12:13:00,32.0,27.9,30.23,NW,304,0.0,1.7,85,0.01,,,0.03,114.00,VWS V14.01,2013-12-06 17:13:00,
2013-12-06 12:15:00,32.1,28.0,30.22,NW,305,0.0,1.7,85,0.01,,,0.03,98.00,VWS V14.01,2013-12-06 17:15:00,
2013-12-06 12:18:00,32.1,28.0,30.23,NW,304,1.9,1.9,85,0.01,,,0.03,74.00,VWS V14.01,2013-12-06 17:18:00,
2013-12-06 12:20:00,32.1,28.0,30.24,West,259,0.0,5.1,85,0.01,,,0.03,65.00,VWS V14.01,2013-12-06 17:20:00,
2013-12-06 12:23:00,32.1,28.0,30.25,West,263,0.0,0.0,85,0.01,,,0.03,46.00,VWS V14.01,2013-12-06 17:23:00,
2013-12-06 12:25:00,32.1,28.0,30.25,West,267,3.8,3.8,85,0.01,,,0.03,53.00,VWS V14.01,2013-12-06 17:25:00,
2013-12-06 12:28:00,32.0,27.9,30.24,West,267,0.0,3.4,85,0.01,,,0.03,65.00,VWS V14.01,2013-12-06 17:28:00,
2013-12-06 12:30:00,32.0,27.9,30.24,West,267,0.0,3.4,85,0.01,,,0.03,70.00,VWS V14.01,2013-12-06 17:30:00,
2013-12-06 12:33:00,32.1,28.0,30.23,West,267,0.0,1.7,85,0.01,,,0.03,88.00,VWS V14.01,2013-12-06 17:33:00,
2013-12-06 12:35:00,32.1,28.0,30.23,West,267,0.0,1.7,85,0.01,,,0.03,102.00,VWS V14.01,2013-12-06 17:35:00,
2013-12-06 12:38:00,32.1,28.0,30.23,NNW,327,7.6,7.6,85,0.01,,,0.03,91.00,VWS V14.01,2013-12-06 17:38:00,
2013-12-06 12:40:00,32.0,27.9,30.23,NW,318,0.0,6.8,85,0.01,,,0.03,109.00,VWS V14.01,2013-12-06 17:40:00,
2013-12-06 12:43:00,32.1,28.0,30.23,West,267,0.0,5.1,85,0.01,,,0.03,84.00,VWS V14.01,2013-12-06 17:43:00,
2013-12-06 12:45:00,32.1,28.0,30.23,West,267,0.0,8.5,85,0.01,,,0.03,74.00,VWS V14.01,2013-12-06 17:45:00,
2013-12-06 12:48:00,32.2,28.1,30.23,West,267,0.0,1.7,85,0.01,,,0.03,81.00,VWS V14.01,2013-12-06 17:48:00,
2013-12-06 12:50:00,32.3,28.2,30.23,West,271,0.0,3.4,85,0.01,,,0.03,88.00,VWS V14.01,2013-12-06 17:50:00,
2013-12-06 12:53:00,32.3,28.2,30.23,West,271,0.0,0.0,85,0.00,,,0.03,100.00,VWS V14.01,2013-12-06 17:53:00,
2013-12-06 12:55:00,32.4,28.3,30.24,NNW,346,0.0,1.7,85,0.00,,,0.03,93.00,VWS V14.01,2013-12-06 17:55:00,
2013-12-06 12:58:00,32.3,28.2,30.24,West,279,0.0,5.1,85,0.00,,,0.03,83.00,VWS V14.01,2013-12-06 17:58:00,
2013-12-06 13:00:00,32.3,27.9,30.24,NW,323,0.0,5.1,84,0.00,,,0.03,95.00,VWS V14.01,2013-12-06 18:00:00,
2013-12-06 13:03:00,32.3,27.9,30.24,North,10,3.8,6.8,84,0.00,,,0.03,109.00,VWS V14.01,2013-12-06 18:03:00,
2013-12-06 13:05:00,32.3,27.9,30.24,NW,320,0.0,6.8,84,0.00,,,0.03,104.00,VWS V14.01,2013-12-06 18:05:00,
2013-12-06 13:08:00,32.4,28.0,30.23,NNW,332,0.0,3.4,84,0.00,,,0.03,90.00,VWS V14.01,2013-12-06 18:08:00,
2013-12-06 13:10:00,32.3,27.9,30.23,NW,311,0.0,3.4,84,0.00,,,0.03,90.00,VWS V14.01,2013-12-06 18:10:00,
2013-12-06 13:13:00,32.3,27.9,30.23,NW,312,0.0,1.7,84,0.00,,,0.03,90.00,VWS V14.01,2013-12-06 18:13:00,
2013-12-06 13:15:00,32.3,27.9,30.24,NW,309,0.0,1.7,84,0.00,,,0.03,86.00,VWS V14.01,2013-12-06 18:15:00,
2013-12-06 13:18:00,32.3,27.9,30.24,WNW,292,0.0,0.0,84,0.00,,,0.03,62.00,VWS V14.01,2013-12-06 18:18:00,
2013-12-06 13:20:00,32.3,27.9,30.23,WNW,294,0.0,1.7,84,0.00,,,0.03,70.00,VWS V14.01,2013-12-06 18:20:00,
2013-12-06 13:23:00,32.3,27.9,30.23,NW,322,0.0,5.1,84,0.00,,,0.03,88.00,VWS V14.01,2013-12-06 18:23:00,
2013-12-06 13:25:00,32.2,27.8,30.23,North,349,1.9,5.1,84,0.00,,,0.03,77.00,VWS V14.01,2013-12-06 18:25:00,
2013-12-06 13:28:00,32.2,27.8,30.23,WNW,294,0.0,3.4,84,0.00,,,0.03,70.00,VWS V14.01,2013-12-06 18:28:00,
2013-12-06 13:30:00,32.3,27.9,30.23,WNW,302,0.0,3.4,84,0.00,,,0.03,74.00,VWS V14.01,2013-12-06 18:30:00,
2013-12-06 13:33:00,32.3,27.9,30.23,WNW,302,0.0,1.7,84,0.00,,,0.03,76.00,VWS V14.01,2013-12-06 18:33:00,
2013-12-06 13:35:00,32.3,27.9,30.23,NNW,342,0.0,3.4,84,0.00,,,0.03,74.00,VWS V14.01,2013-12-06 18:35:00,
2013-12-06 13:38:00,32.3,27.9,30.22,NNW,342,0.0,5.1,84,0.00,,,0.03,74.00,VWS V14.01,2013-12-06 18:38:00,
2013-12-06 13:40:00,32.3,27.9,30.22,NW,309,0.0,5.1,84,0.00,,,0.03,67.00,VWS V14.01,2013-12-06 18:40:00,
2013-12-06 13:43:00,32.3,27.9,30.22,WNW,295,0.0,1.7,84,0.00,,,0.03,58.00,VWS V14.01,2013-12-06 18:43:00,
2013-12-06 13:45:00,32.3,27.9,30.22,WNW,295,0.0,1.7,84,0.00,,,0.03,60.00,VWS V14.01,2013-12-06 18:45:00,
2013-12-06 13:48:00,32.3,27.9,30.21,WNW,290,0.0,3.4,84,0.00,,,0.03,69.00,VWS V14.01,2013-12-06 18:48:00,
2013-12-06 13:50:00,32.3,27.9,30.21,WNW,290,0.0,3.4,84,0.00,,,0.03,70.00,VWS V14.01,2013-12-06 18:50:00,
2013-12-06 13:53:00,32.3,27.9,30.21,WNW,290,3.8,3.8,84,0.00,,,0.03,58.00,VWS V14.01,2013-12-06 18:53:00,
2013-12-06 13:55:00,32.3,27.9,30.21,NW,325,0.0,3.4,84,0.00,,,0.03,47.00,VWS V14.01,2013-12-06 18:55:00,
2013-12-06 13:58:00,32.3,27.9,30.21,NW,325,0.0,1.7,84,0.01,,,0.04,40.00,VWS V14.01,2013-12-06 18:58:00,
2013-12-06 14:00:00,32.3,27.9,30.21,NNW,342,0.0,3.4,84,0.01,,,0.04,40.00,VWS V14.01,2013-12-06 19:00:00,
2013-12-06 14:03:00,32.2,27.8,30.21,WNW,296,0.0,5.1,84,0.01,,,0.04,40.00,VWS V14.01,2013-12-06 19:03:00,
2013-12-06 14:05:00,32.3,27.9,30.21,WNW,294,0.0,5.1,84,0.01,,,0.04,40.00,VWS V14.01,2013-12-06 19:05:00,
2013-12-06 14:08:00,32.3,27.9,30.21,WNW,294,0.0,0.0,84,0.01,,,0.04,33.00,VWS V14.01,2013-12-06 19:08:00,
2013-12-06 14:10:00,32.3,27.9,30.21,NNW,344,5.7,5.7,84,0.01,,,0.04,30.00,VWS V14.01,2013-12-06 19:10:00,
2013-12-06 14:13:00,32.3,27.9,30.21,NW,304,0.0,5.1,84,0.01,,,0.04,30.00,VWS V14.01,2013-12-06 19:13:00,
2013-12-06 14:15:00,32.4,28.0,30.21,NW,307,0.0,5.1,84,0.01,,,0.04,26.00,VWS V14.01,2013-12-06 19:15:00,
2013-12-06 14:18:00,32.4,28.0,30.21,NW,307,0.0,1.7,84,0.01,,,0.04,26.00,VWS V14.01,2013-12-06 19:18:00,
2013-12-06 14:20:00,32.4,28.0,30.22,NW,307,0.0,1.7,84,0.01,,,0.04,26.00,VWS V14.01,2013-12-06 19:20:00,
2013-12-06 14:23:00,32.4,28.0,30.22,NW,307,0.0,0.0,84,0.01,,,0.04,21.00,VWS V14.01,2013-12-06 19:23:00,
2013-12-06 14:25:00,32.4,27.8,30.21,NW,307,0.0,1.7,83,0.01,,,0.04,19.00,VWS V14.01,2013-12-06 19:25:00,
2013-12-06 14:28:00,32.3,27.7,30.21,NNW,341,1.9,3.4,83,0.01,,,0.04,21.00,VWS V14.01,2013-12-06 19:28:00,
2013-12-06 14:30:00,32.3,27.7,30.22,NW,311,0.0,5.1,83,0.01,,,0.04,23.00,VWS V14.01,2013-12-06 19:30:00,
2013-12-06 14:33:00,32.1,27.5,30.21,NNW,333,0.0,8.5,83,0.01,,,0.04,19.00,VWS V14.01,2013-12-06 19:33:00,
2013-12-06 14:35:00,32.1,27.5,30.21,NNE,13,5.7,8.5,83,0.01,,,0.04,16.00,VWS V14.01,2013-12-06 19:35:00,
2013-12-06 14:38:00,32.0,27.4,30.22,North,5,5.7,6.8,83,0.01,,,0.04,16.00,VWS V14.01,2013-12-06 19:38:00,
2013-12-06 14:40:00,31.9,27.3,30.22,NNW,346,3.8,6.8,83,0.01,,,0.04,16.00,VWS V14.01,2013-12-06 19:40:00,
2013-12-06 14:43:00,31.8,27.2,30.22,NNW,336,0.0,3.4,83,0.01,,,0.04,18.00,VWS V14.01,2013-12-06 19:43:00,
2013-12-06 14:45:00,31.7,27.1,30.22,NNW,336,0.0,3.4,83,0.01,,,0.04,19.00,VWS V14.01,2013-12-06 19:45:00,
2013-12-06 14:48:00,31.6,27.0,30.22,NNW,346,0.0,5.1,83,0.01,,,0.04,21.00,VWS V14.01,2013-12-06 19:48:00,
2013-12-06 14:50:00,31.5,26.9,30.22,NNW,329,1.9,5.1,83,0.01,,,0.04,21.00,VWS V14.01,2013-12-06 19:50:00,
2013-12-06 14:53:00,31.3,27.0,30.22,NNW,347,0.0,5.1,84,0.01,,,0.04,25.00,VWS V14.01,2013-12-06 19:53:00,
2013-12-06 14:55:00,31.2,26.9,30.22,NNW,347,0.0,5.1,84,0.01,,,0.04,26.00,VWS V14.01,2013-12-06 19:55:00,
2013-12-06 14:58:00,31.1,26.8,30.21,NNW,344,3.8,6.8,84,0.01,,,0.04,25.00,VWS V14.01,2013-12-06 19:58:00,
2013-12-06 15:00:00,31.1,26.8,30.21,North,355,1.9,6.8,84,0.01,,,0.04,21.00,VWS V14.01,2013-12-06 20:00:00,
2013-12-06 15:03:00,31.0,26.7,30.21,NW,325,1.9,1.9,84,0.00,,,0.04,18.00,VWS V14.01,2013-12-06 20:03:00,
2013-12-06 15:05:00,31.0,26.9,30.22,NNW,341,3.8,3.8,85,0.00,,,0.04,16.00,VWS V14.01,2013-12-06 20:05:00,
2013-12-06 15:08:00,30.8,26.7,30.22,NNW,333,7.6,8.5,85,0.00,,,0.04,16.00,VWS V14.01,2013-12-06 20:08:00,
2013-12-06 15:10:00,30.8,26.7,30.22,NNW,341,0.0,8.5,85,0.00,,,0.04,16.00,VWS V14.01,2013-12-06 20:10:00,
2013-12-06 15:13:00,30.8,26.7,30.22,NNW,341,0.0,0.0,85,0.00,,,0.04,14.00,VWS V14.01,2013-12-06 20:13:00,
2013-12-06 15:15:00,30.8,26.7,30.22,NNW,341,0.0,3.4,85,0.00,,,0.04,14.00,VWS V14.01,2013-12-06 20:15:00,
2013-12-06 15:18:00,30.8,27.0,30.22,NNW,340,0.0,3.4,86,0.00,,,0.04,12.00,VWS V14.01,2013-12-06 20:18:00,
2013-12-06 15:20:00,30.7,26.9,30.22,NNW,337,3.8,3.8,86,0.00,,,0.04,11.00,VWS V14.01,2013-12-06 20:20:00,
2013-12-06 15:23:00,30.7,26.9,30.22,NNW,340,0.0,3.4,86,0.00,,,0.04,11.00,VWS V14.01,2013-12-06 20:23:00,
2013-12-06 15:25:00,30.7,26.9,30.22,NNW,344,7.6,7.6,86,0.00,,,0.04,11.00,VWS V14.01,2013-12-06 20:25:00,
2013-12-06 15:28:00,30.6,26.8,30.22,North,360,0.0,6.8,86,0.00,,,0.04,9.00,VWS V14.01,2013-12-06 20:28:00,
2013-12-06 15:30:00,30.6,26.8,30.22,North,355,3.8,6.8,86,0.00,,,0.04,12.00,VWS V14.01,2013-12-06 20:30:00,
2013-12-06 15:33:00,30.5,26.7,30.22,North,355,0.0,6.8,86,0.00,,,0.04,14.00,VWS V14.01,2013-12-06 20:33:00,
2013-12-06 15:35:00,30.5,26.7,30.22,NW,319,0.0,6.8,86,0.00,,,0.04,12.00,VWS V14.01,2013-12-06 20:35:00,
2013-12-06 15:38:00,30.5,26.7,30.22,NNW,344,0.0,3.4,86,0.00,,,0.04,11.00,VWS V14.01,2013-12-06 20:38:00,
2013-12-06 15:40:00,30.5,26.7,30.22,NNW,344,0.0,3.4,86,0.00,,,0.04,7.00,VWS V14.01,2013-12-06 20:40:00,
2013-12-06 15:43:00,30.4,26.6,30.23,North,350,0.0,5.1,86,0.00,,,0.04,7.00,VWS V14.01,2013-12-06 20:43:00,
2013-12-06 15:45:00,30.4,26.6,30.23,NNW,346,0.0,5.1,86,0.00,,,0.04,7.00,VWS V14.01,2013-12-06 20:45:00,
2013-12-06 15:48:00,30.4,26.6,30.23,NNW,343,0.0,0.0,86,0.00,,,0.04,7.00,VWS V14.01,2013-12-06 20:48:00,
2013-12-06 15:50:00,30.4,26.9,30.23,NW,323,0.0,1.7,86,0.00,,,0.04,7.00,VWS V14.01,2013-12-06 20:50:00,
2013-12-06 15:53:00,30.3,26.8,30.23,NNW,327,1.9,3.4,86,0.00,,,0.04,7.00,VWS V14.01,2013-12-06 20:53:00,
2013-12-06 15:55:00,30.3,26.8,30.23,NW,313,0.0,3.4,86,0.00,,,0.04,7.00,VWS V14.01,2013-12-06 20:55:00,
2013-12-06 15:58:00,30.3,26.8,30.23,NW,315,0.0,1.7,86,0.00,,,0.04,7.00,VWS V14.01,2013-12-06 20:58:00,
2013-12-06 16:00:00,30.2,26.7,30.23,North,5,5.7,8.5,86,0.00,,,0.04,7.00,VWS V14.01,2013-12-06 21:00:00,
2013-12-06 16:03:00,30.1,26.6,30.23,NNW,330,3.8,5.1,86,0.00,,,0.04,9.00,VWS V14.01,2013-12-06 21:03:00,
2013-12-06 16:05:00,30.1,26.6,30.23,NNW,330,0.0,5.1,86,0.00,,,0.04,7.00,VWS V14.01,2013-12-06 21:05:00,
2013-12-06 16:08:00,30.1,26.6,30.22,NNW,346,5.7,6.8,86,0.00,,,0.04,7.00,VWS V14.01,2013-12-06 21:08:00,
2013-12-06 16:10:00,30.0,26.5,30.22,North,355,7.6,7.6,86,0.00,,,0.04,5.00,VWS V14.01,2013-12-06 21:10:00,
2013-12-06 16:13:00,30.0,26.5,30.22,North,355,1.9,6.8,86,0.00,,,0.04,5.00,VWS V14.01,2013-12-06 21:13:00,
2013-12-06 16:15:00,30.0,26.5,30.22,North,355,0.0,6.8,86,0.00,,,0.04,5.00,VWS V14.01,2013-12-06 21:15:00,
2013-12-06 16:18:00,30.0,26.5,30.22,NNW,344,0.0,3.4,86,0.00,,,0.04,0.00,VWS V14.01,2013-12-06 21:18:00,
2013-12-06 16:20:00,30.0,26.5,30.22,NNW,346,0.0,3.4,86,0.00,,,0.04,0.00,VWS V14.01,2013-12-06 21:20:00,
2013-12-06 16:23:00,30.1,26.6,30.23,NNW,346,0.0,1.7,86,0.00,,,0.04,0.00,VWS V14.01,2013-12-06 21:23:00,
2013-12-06 16:25:00,30.0,26.5,30.22,NNW,329,0.0,1.7,86,0.00,,,0.04,0.00,VWS V14.01,2013-12-06 21:25:00,
2013-12-06 16:28:00,30.1,26.6,30.23,NNW,340,0.0,3.4,86,0.00,,,0.04,0.00,VWS V14.01,2013-12-06 21:28:00,
2013-12-06 16:30:00,30.1,26.6,30.23,NNW,340,0.0,3.4,86,0.00,,,0.04,0.00,VWS V14.01,2013-12-06 21:30:00,
2013-12-06 16:33:00,30.2,26.7,30.24,NW,323,1.9,3.4,86,0.00,,,0.04,0.00,VWS V14.01,2013-12-06 21:33:00,
2013-12-06 16:35:00,30.2,26.7,30.24,NW,323,0.0,3.4,86,0.00,,,0.04,0.00,VWS V14.01,2013-12-06 21:35:00,
2013-12-06 16:38:00,30.2,26.7,30.25,NW,312,0.0,3.4,86,0.00,,,0.04,0.00,VWS V14.01,2013-12-06 21:38:00,
2013-12-06 16:40:00,30.1,26.6,30.25,WNW,284,0.0,3.4,86,0.00,,,0.04,0.00,VWS V14.01,2013-12-06 21:40:00,
2013-12-06 16:43:00,29.9,26.4,30.26,NNW,346,1.9,5.1,86,0.00,,,0.04,0.00,VWS V14.01,2013-12-06 21:43:00,
2013-12-06 16:45:00,29.9,26.4,30.26,NNW,347,0.0,5.1,86,0.00,,,0.04,0.00,VWS V14.01,2013-12-06 21:45:00,
2013-12-06 16:48:00,29.8,26.3,30.26,NNW,347,0.0,3.4,86,0.00,,,0.04,0.00,VWS V14.01,2013-12-06 21:48:00,
2013-12-06 16:50:00,29.8,26.3,30.25,NNW,346,0.0,3.4,86,0.00,,,0.04,0.00,VWS V14.01,2013-12-06 21:50:00,
2013-12-06 16:53:00,29.8,26.3,30.26,NNW,346,0.0,0.0,86,0.00,,,0.04,0.00,VWS V14.01,2013-12-06 21:53:00,
2013-12-06 16:55:00,29.8,26.3,30.26,NNW,347,0.0,0.0,86,0.00,,,0.04,0.00,VWS V14.01,2013-12-06 21:55:00,
2013-12-06 16:58:00,29.9,26.4,30.26,NNW,347,0.0,1.7,86,0.00,,,0.04,0.00,VWS V14.01,2013-12-06 21:58:00,
2013-12-06 17:00:00,29.9,26.4,30.26,NNW,347,0.0,1.7,86,0.00,,,0.04,0.00,VWS V14.01,2013-12-06 22:00:00,
2013-12-06 17:03:00,29.9,26.4,30.26,NNW,346,1.9,3.4,86,0.00,,,0.04,0.00,VWS V14.01,2013-12-06 22:03:00,
2013-12-06 17:05:00,29.9,26.4,30.26,NNW,337,0.0,5.1,86,0.00,,,0.04,0.00,VWS V14.01,2013-12-06 22:05:00,
2013-12-06 17:08:00,29.8,26.3,30.26,NNW,338,0.0,3.4,86,0.00,,,0.04,0.00,VWS V14.01,2013-12-06 22:08:00,
2013-12-06 17:10:00,29.8,26.3,30.25,NNW,342,1.9,3.4,86,0.00,,,0.04,0.00,VWS V14.01,2013-12-06 22:10:00,
2013-12-06 17:13:00,29.8,26.3,30.26,NNW,338,0.0,5.1,86,0.00,,,0.04,0.00,VWS V14.01,2013-12-06 22:13:00,
2013-12-06 17:15:00,29.8,26.3,30.26,NNW,338,0.0,5.1,86,0.00,,,0.04,0.00,VWS V14.01,2013-12-06 22:15:00,
2013-12-06 17:18:00,29.8,26.3,30.26,NW,321,0.0,3.4,86,0.00,,,0.04,0.00,VWS V14.01,2013-12-06 22:18:00,
2013-12-06 17:20:00,29.7,26.2,30.26,NW,321,0.0,3.4,86,0.00,,,0.04,0.00,VWS V14.01,2013-12-06 22:20:00,
2013-12-06 17:23:00,29.7,26.2,30.26,NW,319,0.0,0.0,86,0.00,,,0.04,0.00,VWS V14.01,2013-12-06 22:23:00,
2013-12-06 17:25:00,29.8,26.3,30.26,NW,315,0.0,0.0,86,0.00,,,0.04,0.00,VWS V14.01,2013-12-06 22:25:00,
2013-12-06 17:28:00,29.7,26.2,30.26,NW,314,0.0,1.7,86,0.00,,,0.04,0.00,VWS V14.01,2013-12-06 22:28:00,
2013-12-06 17:30:00,29.7,26.2,30.26,NW,311,0.0,1.7,86,0.00,,,0.04,0.00,VWS V14.01,2013-12-06 22:30:00,
2013-12-06 17:33:00,29.7,26.2,30.26,NNW,346,3.8,6.8,86,0.00,,,0.04,0.00,VWS V14.01,2013-12-06 22:33:00,
2013-12-06 17:35:00,29.7,26.2,30.26,NNW,345,0.0,6.8,86,0.00,,,0.04,0.00,VWS V14.01,2013-12-06 22:35:00,
2013-12-06 17:38:00,29.7,26.2,30.26,NNW,348,0.0,1.7,86,0.00,,,0.04,0.00,VWS V14.01,2013-12-06 22:38:00,
2013-12-06 17:40:00,29.7,26.4,30.26,North,9,3.8,3.8,87,0.00,,,0.04,0.00,VWS V14.01,2013-12-06 22:40:00,
2013-12-06 17:43:00,29.6,26.3,30.26,North,355,5.7,5.7,87,0.00,,,0.04,0.00,VWS V14.01,2013-12-06 22:43:00,
2013-12-06 17:45:00,29.6,26.3,30.26,NNW,345,0.0,5.1,87,0.00,,,0.04,0.00,VWS V14.01,2013-12-06 22:45:00,
2013-12-06 17:48:00,29.6,26.3,30.25,NW,319,3.8,3.8,87,0.00,,,0.04,0.00,VWS V14.01,2013-12-06 22:48:00,
2013-12-06 17:50:00,29.5,26.2,30.25,NW,309,3.8,5.1,87,0.00,,,0.04,0.00,VWS V14.01,2013-12-06 22:50:00,
2013-12-06 17:53:00,29.5,26.2,30.25,NNW,330,0.0,3.4,87,0.00,,,0.04,0.00,VWS V14.01,2013-12-06 22:53:00,
2013-12-06 17:55:00,29.6,26.3,30.25,NW,311,3.8,3.8,87,0.00,,,0.04,0.00,VWS V14.01,2013-12-06 22:55:00,
2013-12-06 17:58:00,29.5,26.2,30.26,North,360,1.9,3.4,87,0.00,,,0.04,0.00,VWS V14.01,2013-12-06 22:58:00,
2013-12-06 18:00:00,29.5,26.2,30.26,NNW,344,1.9,5.1,87,0.00,,,0.04,0.00,VWS V14.01,2013-12-06 23:00:00,
2013-12-06 18:03:00,29.5,26.2,30.26,NNW,341,0.0,1.7,87,0.00,,,0.04,0.00,VWS V14.01,2013-12-06 23:03:00,
2013-12-06 18:05:00,29.5,26.2,30.26,NNW,337,0.0,1.7,87,0.00,,,0.04,0.00,VWS V14.01,2013-12-06 23:05:00,
2013-12-06 18:08:00,29.6,26.3,30.26,North,360,1.9,5.1,87,0.00,,,0.04,0.00,VWS V14.01,2013-12-06 23:08:00,
2013-12-06 18:10:00,29.6,26.3,30.26,North,355,1.9,5.1,87,0.00,,,0.04,0.00,VWS V14.01,2013-12-06 23:10:00,
2013-12-06 18:13:00,29.5,26.2,30.27,North,355,0.0,6.8,87,0.00,,,0.04,0.00,VWS V14.01,2013-12-06 23:13:00,
2013-12-06 18:15:00,29.5,26.2,30.27,NNW,347,1.9,6.8,87,0.00,,,0.04,0.00,VWS V14.01,2013-12-06 23:15:00,
2013-12-06 18:18:00,29.4,26.1,30.26,NNW,344,1.9,5.1,87,0.00,,,0.04,0.00,VWS V14.01,2013-12-06 23:18:00,
2013-12-06 18:20:00,29.4,26.1,30.26,NNW,346,0.0,5.1,87,0.00,,,0.04,0.00,VWS V14.01,2013-12-06 23:20:00,
2013-12-06 18:23:00,29.3,26.0,30.25,NNW,347,7.6,10.2,87,0.00,,,0.04,0.00,VWS V14.01,2013-12-06 23:23:00,
2013-12-06 18:25:00,29.2,25.9,30.25,NNE,26,3.8,10.2,87,0.00,,,0.04,0.00,VWS V14.01,2013-12-06 23:25:00,
2013-12-06 18:28:00,29.2,25.9,30.26,North,355,3.8,6.8,87,0.00,,,0.04,0.00,VWS V14.01,2013-12-06 23:28:00,
2013-12-06 18:30:00,29.1,25.8,30.26,NNW,345,0.0,6.8,87,0.00,,,0.04,0.00,VWS V14.01,2013-12-06 23:30:00,
2013-12-06 18:33:00,29.0,25.7,30.25,North,360,3.8,5.1,87,0.00,,,0.04,0.00,VWS V14.01,2013-12-06 23:33:00,
2013-12-06 18:35:00,29.0,25.7,30.25,North,350,0.0,5.1,87,0.00,,,0.04,0.00,VWS V14.01,2013-12-06 23:35:00,
2013-12-06 18:39:00,29.0,25.7,30.25,North,355,0.0,3.4,87,0.00,,,0.04,0.00,VWS V14.01,2013-12-06 23:39:00,
2013-12-06 18:40:00,29.0,25.7,30.25,North,355,0.0,3.4,87,0.00,,,0.04,0.00,VWS V14.01,2013-12-06 23:40:00,
2013-12-06 18:44:00,29.0,25.5,30.26,North,355,0.0,0.0,86,0.00,,,0.04,0.00,VWS V14.01,2013-12-06 23:44:00,
2013-12-06 18:45:00,29.0,25.5,30.26,North,355,0.0,0.0,86,0.00,,,0.04,0.00,VWS V14.01,2013-12-06 23:45:00,
2013-12-06 18:49:00,29.0,25.7,30.26,North,355,0.0,1.7,87,0.00,,,0.04,0.00,VWS V14.01,2013-12-06 23:49:00,
2013-12-06 18:50:00,29.0,25.7,30.27,North,355,0.0,1.7,87,0.00,,,0.04,0.00,VWS V14.01,2013-12-06 23:50:00,
2013-12-06 18:54:00,29.0,25.7,30.27,North,355,1.9,1.9,87,0.00,,,0.04,0.00,VWS V14.01,2013-12-06 23:54:00,
2013-12-06 18:55:00,29.0,25.7,30.27,North,5,7.6,7.6,87,0.00,,,0.04,0.00,VWS V14.01,2013-12-06 23:55:00,
2013-12-06 18:59:00,28.9,25.4,30.26,NW,313,0.0,6.8,86,0.00,,,0.04,0.00,VWS V14.01,2013-12-06 23:59:00,
2013-12-06 19:00:00,28.8,25.3,30.26,North,360,0.0,10.2,86,0.00,,,0.04,0.00,VWS V14.01,2013-12-07 00:00:00,
2013-12-06 19:04:00,28.7,25.2,30.28,NNW,338,7.6,7.6,86,0.00,,,0.04,0.00,VWS V14.01,2013-12-07 00:04:00,
2013-12-06 19:05:00,28.7,25.4,30.28,NNW,346,0.0,6.8,87,0.00,,,0.04,0.00,VWS V14.01,2013-12-07 00:05:00,
2013-12-06 19:09:00,28.6,25.4,30.28,NW,310,0.0,3.4,87,0.00,,,0.04,0.00,VWS V14.01,2013-12-07 00:09:00,
2013-12-06 19:10:00,28.7,25.4,30.28,NNW,329,0.0,3.4,87,0.00,,,0.04,0.00,VWS V14.01,2013-12-07 00:10:00,
2013-12-06 19:14:00,28.7,25.4,30.29,NW,317,3.8,5.1,87,0.00,,,0.04,0.00,VWS V14.01,2013-12-07 00:14:00,
2013-12-06 19:15:00,28.6,25.3,30.29,North,9,5.7,5.7,87,0.00,,,0.04,0.00,VWS V14.01,2013-12-07 00:15:00,
2013-12-06 19:19:00,28.5,25.0,30.30,NW,309,1.9,6.8,86,0.00,,,0.04,0.00,VWS V14.01,2013-12-07 00:19:00,
2013-12-06 19:20:00,28.5,25.0,30.30,NW,313,0.0,6.8,86,0.00,,,0.04,0.00,VWS V14.01,2013-12-07 00:20:00,
2013-12-06 19:24:00,28.5,25.0,30.31,NW,307,0.0,6.8,86,0.00,,,0.04,0.00,VWS V14.01,2013-12-07 00:24:00,
2013-12-06 19:25:00,28.5,25.0,30.31,NW,309,0.0,6.8,86,0.00,,,0.04,0.00,VWS V14.01,2013-12-07 00:25:00,
2013-12-06 19:29:00,28.4,24.9,30.32,NW,313,0.0,6.8,86,0.00,,,0.04,0.00,VWS V14.01,2013-12-07 00:29:00,
2013-12-06 19:30:00,28.4,24.9,30.31,NW,313,0.0,6.8,86,0.00,,,0.04,0.00,VWS V14.01,2013-12-07 00:30:00,
2013-12-06 19:34:00,28.4,24.9,30.32,West,271,0.0,5.1,86,0.00,,,0.04,0.00,VWS V14.01,2013-12-07 00:34:00,
2013-12-06 19:35:00,28.4,24.9,30.32,NNW,330,0.0,5.1,86,0.00,,,0.04,0.00,VWS V14.01,2013-12-07 00:35:00,
2013-12-06 19:39:00,28.4,24.9,30.32,NNW,346,0.0,5.1,86,0.00,,,0.04,0.00,VWS V14.01,2013-12-07 00:39:00,
2013-12-06 19:40:00,28.4,24.9,30.32,NNW,345,0.0,5.1,86,0.00,,,0.04,0.00,VWS V14.01,2013-12-07 00:40:00,
2013-12-06 19:44:00,28.4,25.1,30.32,NNW,341,3.8,5.1,87,0.00,,,0.04,0.00,VWS V14.01,2013-12-07 00:44:00,
2013-12-06 19:45:00,28.4,25.1,30.32,NNW,331,0.0,8.5,87,0.00,,,0.04,0.00,VWS V14.01,2013-12-07 00:45:00,
2013-12-06 19:49:00,28.4,25.1,30.31,NNW,347,3.8,3.8,87,0.00,,,0.04,0.00,VWS V14.01,2013-12-07 00:49:00,
2013-12-06 19:50:00,28.4,25.1,30.32,NNW,347,1.9,3.4,87,0.00,,,0.04,0.00,VWS V14.01,2013-12-07 00:50:00,
2013-12-06 19:54:00,28.3,24.8,30.31,NNW,332,3.8,3.8,86,0.00,,,0.04,0.00,VWS V14.01,2013-12-07 00:54:00,
2013-12-06 19:55:00,28.3,24.8,30.31,NNW,332,0.0,3.4,86,0.00,,,0.04,0.00,VWS V14.01,2013-12-07 00:55:00,
2013-12-06 19:59:00,28.3,24.8,30.31,NW,326,0.0,1.7,86,0.00,,,0.04,0.00,VWS V14.01,2013-12-07 00:59:00,
2013-12-06 20:00:00,28.3,24.8,30.31,NNW,327,0.0,1.7,86,0.00,,,0.04,0.00,VWS V14.01,2013-12-07 01:00:00,
2013-12-06 20:04:00,28.2,24.7,30.29,North,355,0.0,1.7,86,0.00,,,0.04,0.00,VWS V14.01,2013-12-07 01:04:00,
2013-12-06 20:05:00,28.1,24.6,30.29,North,355,0.0,1.7,86,0.00,,,0.04,0.00,VWS V14.01,2013-12-07 01:05:00,
2013-12-06 20:09:00,28.1,24.6,30.30,NNW,330,0.0,5.1,86,0.00,,,0.04,0.00,VWS V14.01,2013-12-07 01:09:00,
2013-12-06 20:10:00,28.1,24.6,30.30,NNW,331,1.9,5.1,86,0.00,,,0.04,0.00,VWS V14.01,2013-12-07 01:10:00,
2013-12-06 20:14:00,28.1,24.6,30.31,NW,306,0.0,1.7,86,0.00,,,0.04,0.00,VWS V14.01,2013-12-07 01:14:00,
2013-12-06 20:15:00,28.1,24.6,30.31,NW,325,0.0,1.7,86,0.00,,,0.04,0.00,VWS V14.01,2013-12-07 01:15:00,
2013-12-06 20:19:00,28.2,25.0,30.32,NW,323,0.0,5.1,87,0.00,,,0.04,0.00,VWS V14.01,2013-12-07 01:19:00,
2013-12-06 20:20:00,28.1,24.9,30.32,WNW,298,0.0,5.1,87,0.00,,,0.04,0.00,VWS V14.01,2013-12-07 01:20:00,
2013-12-06 20:24:00,28.2,25.0,30.31,NNW,330,0.0,1.7,87,0.00,,,0.04,0.00,VWS V14.01,2013-12-07 01:24:00,
2013-12-06 20:25:00,28.2,25.0,30.32,NNW,330,0.0,1.7,87,0.00,,,0.04,0.00,VWS V14.01,2013-12-07 01:25:00,
2013-12-06 20:29:00,28.2,25.0,30.31,NNW,330,0.0,0.0,87,0.00,,,0.04,0.00,VWS V14.01,2013-12-07 01:29:00,
2013-12-06 20:30:00,28.2,25.0,30.31,NNW,330,0.0,1.7,87,0.00,,,0.04,0.00,VWS V14.01,2013-12-07 01:30:00,
2013-12-06 20:34:00,28.1,24.9,30.31,NNW,330,0.0,1.7,87,0.00,,,0.04,0.00,VWS V14.01,2013-12-07 01:34:00,
2013-12-06 20:35:00,28.1,24.9,30.31,NNW,331,0.0,3.4,87,0.00,,,0.04,0.00,VWS V14.01,2013-12-07 01:35:00,
2013-12-06 20:39:00,28.1,24.9,30.32,NNW,330,0.0,0.0,87,0.00,,,0.04,0.00,VWS V14.01,2013-12-07 01:39:00,
2013-12-06 20:40:00,28.1,24.9,30.32,NNW,331,0.0,1.7,87,0.00,,,0.04,0.00,VWS V14.01,2013-12-07 01:40:00,
2013-12-06 20:44:00,28.1,24.9,30.32,North,355,7.6,10.2,87,0.00,,,0.04,0.00,VWS V14.01,2013-12-07 01:44:00,
2013-12-06 20:45:00,28.1,24.9,30.31,NNW,327,0.0,10.2,87,0.00,,,0.04,0.00,VWS V14.01,2013-12-07 01:45:00,
2013-12-06 20:49:00,27.8,24.6,30.30,North,350,3.8,6.8,87,0.00,,,0.04,0.00,VWS V14.01,2013-12-07 01:49:00,
2013-12-06 20:50:00,27.8,24.6,30.30,West,277,5.7,6.8,87,0.00,,,0.04,0.00,VWS V14.01,2013-12-07 01:50:00,
2013-12-06 20:54:00,27.6,24.1,30.32,WNW,286,0.0,5.1,86,0.00,,,0.04,0.00,VWS V14.01,2013-12-07 01:54:00,
2013-12-06 20:55:00,27.6,24.4,30.32,NW,326,0.0,5.1,87,0.00,,,0.04,0.00,VWS V14.01,2013-12-07 01:55:00,
2013-12-06 20:59:00,27.6,24.4,30.32,NNW,336,0.0,3.4,87,0.00,,,0.04,0.00,VWS V14.01,2013-12-07 01:59:00,
2013-12-06 21:00:00,27.5,24.3,30.32,North,360,0.0,5.1,87,0.00,,,0.04,0.00,VWS V14.01,2013-12-07 02:00:00,
2013-12-06 21:04:00,27.4,24.2,30.32,WNW,296,0.0,6.8,87,0.00,,,0.04,0.00,VWS V14.01,2013-12-07 02:04:00,
2013-12-06 21:05:00,27.4,24.2,30.33,WNW,296,0.0,6.8,87,0.00,,,0.04,0.00,VWS V14.01,2013-12-07 02:05:00,
2013-12-06 21:09:00,27.4,24.2,30.34,NW,326,0.0,6.8,87,0.00,,,0.04,0.00,VWS V14.01,2013-12-07 02:09:00,
2013-12-06 21:10:00,27.4,24.2,30.34,WNW,302,3.8,6.8,87,0.00,,,0.04,0.00,VWS V14.01,2013-12-07 02:10:00,
2013-12-06 21:14:00,27.4,24.2,30.35,NW,304,1.9,6.8,87,0.00,,,0.04,0.00,VWS V14.01,2013-12-07 02:14:00,
2013-12-06 21:15:00,27.4,24.2,30.35,NW,320,0.0,6.8,87,0.00,,,0.04,0.00,VWS V14.01,2013-12-07 02:15:00,
2013-12-06 21:19:00,27.4,24.2,30.33,NNW,329,0.0,5.1,87,0.00,,,0.04,0.00,VWS V14.01,2013-12-07 02:19:00,
2013-12-06 21:20:00,27.4,24.2,30.33,NNW,327,3.8,5.1,87,0.00,,,0.04,0.00,VWS V14.01,2013-12-07 02:20:00,
2013-12-06 21:24:00,27.3,24.1,30.33,NNW,329,0.0,3.4,87,0.00,,,0.04,0.00,VWS V14.01,2013-12-07 02:24:00,
2013-12-06 21:25:00,27.3,24.1,30.33,North,360,1.9,3.4,87,0.00,,,0.04,0.00,VWS V14.01,2013-12-07 02:25:00,
2013-12-06 21:29:00,27.4,24.2,30.33,West,268,0.0,5.1,87,0.00,,,0.04,0.00,VWS V14.01,2013-12-07 02:29:00,
2013-12-06 21:30:00,27.3,24.1,30.33,NW,318,3.8,5.1,87,0.00,,,0.04,0.00,VWS V14.01,2013-12-07 02:30:00,
2013-12-06 21:34:00,27.2,24.0,30.33,NW,319,3.8,10.2,87,0.00,,,0.04,0.00,VWS V14.01,2013-12-07 02:34:00,
2013-12-06 21:35:00,27.2,24.0,30.33,NW,312,0.0,10.2,87,0.00,,,0.04,0.00,VWS V14.01,2013-12-07 02:35:00,
2013-12-06 21:39:00,27.2,24.0,30.34,NW,316,1.9,11.9,87,0.00,,,0.04,0.00,VWS V14.01,2013-12-07 02:39:00,
2013-12-06 21:40:00,27.2,24.0,30.34,NW,310,0.0,11.9,87,0.00,,,0.04,0.00,VWS V14.01,2013-12-07 02:40:00,
2013-12-06 21:44:00,27.2,23.7,30.33,NNW,343,7.6,8.5,86,0.00,,,0.04,0.00,VWS V14.01,2013-12-07 02:44:00,
2013-12-06 21:45:00,27.2,23.7,30.33,NNW,340,5.7,8.5,86,0.00,,,0.04,0.00,VWS V14.01,2013-12-07 02:45:00,
2013-12-06 21:49:00,27.2,23.7,30.35,NW,309,0.0,5.1,86,0.00,,,0.04,0.00,VWS V14.01,2013-12-07 02:49:00,
2013-12-06 21:50:00,27.2,23.7,30.35,NW,309,0.0,5.1,86,0.00,,,0.04,0.00,VWS V14.01,2013-12-07 02:50:00,
2013-12-06 21:54:00,27.2,23.7,30.36,WNW,286,1.9,5.1,86,0.00,,,0.04,0.00,VWS V14.01,2013-12-07 02:54:00,
2013-12-06 21:55:00,27.2,23.7,30.36,North,350,5.7,5.7,86,0.00,,,0.04,0.00,VWS V14.01,2013-12-07 02:55:00,
2013-12-06 21:59:00,27.2,23.7,30.37,WNW,291,0.0,5.1,86,0.00,,,0.04,0.00,VWS V14.01,2013-12-07 02:59:00,
2013-12-06 22:00:00,27.2,23.7,30.37,WNW,291,0.0,5.1,86,0.00,,,0.04,0.00,VWS V14.01,2013-12-07 03:00:00,
2013-12-06 22:04:00,27.2,23.7,30.36,WNW,291,0.0,0.0,86,0.00,,,0.04,0.00,VWS V14.01,2013-12-07 03:04:00,
2013-12-06 22:05:00,27.2,23.7,30.36,WNW,302,0.0,0.0,86,0.00,,,0.04,0.00,VWS V14.01,2013-12-07 03:05:00,
2013-12-06 22:09:00,27.2,23.7,30.35,WNW,302,0.0,0.0,86,0.00,,,0.04,0.00,VWS V14.01,2013-12-07 03:09:00,
2013-12-06 22:10:00,27.2,23.7,30.35,WNW,302,0.0,0.0,86,0.00,,,0.04,0.00,VWS V14.01,2013-12-07 03:10:00,
2013-12-06 22:14:00,27.2,23.7,30.35,WNW,302,0.0,3.4,86,0.00,,,0.04,0.00,VWS V14.01,2013-12-07 03:14:00,
2013-12-06 22:15:00,27.2,23.7,30.35,WNW,302,0.0,3.4,86,0.00,,,0.04,0.00,VWS V14.01,2013-12-07 03:15:00,
2013-12-06 22:19:00,27.2,23.7,30.35,WNW,302,0.0,0.0,86,0.00,,,0.04,0.00,VWS V14.01,2013-12-07 03:19:00,
2013-12-06 22:20:00,27.2,23.7,30.35,WNW,302,0.0,0.0,86,0.00,,,0.04,0.00,VWS V14.01,2013-12-07 03:20:00,
2013-12-06 22:24:00,27.2,23.7,30.34,WNW,302,0.0,0.0,86,0.00,,,0.04,0.00,VWS V14.01,2013-12-07 03:24:00,
2013-12-06 22:25:00,27.2,23.7,30.34,WNW,302,0.0,1.7,86,0.00,,,0.04,0.00,VWS V14.01,2013-12-07 03:25:00,
2013-12-06 22:29:00,27.1,23.6,30.35,WNW,302,0.0,1.7,86,0.00,,,0.04,0.00,VWS V14.01,2013-12-07 03:29:00,
2013-12-06 22:30:00,27.1,23.6,30.35,WNW,302,0.0,1.7,86,0.00,,,0.04,0.00,VWS V14.01,2013-12-07 03:30:00,
2013-12-06 22:34:00,27.1,23.6,30.35,WNW,302,0.0,0.0,86,0.00,,,0.04,0.00,VWS V14.01,2013-12-07 03:34:00,
2013-12-06 22:35:00,27.2,23.7,30.35,WNW,302,0.0,0.0,86,0.00,,,0.04,0.00,VWS V14.01,2013-12-07 03:35:00,
2013-12-06 22:39:00,27.2,23.7,30.35,WNW,302,0.0,0.0,86,0.00,,,0.04,0.00,VWS V14.01,2013-12-07 03:39:00,
2013-12-06 22:40:00,27.2,23.7,30.35,WNW,302,0.0,0.0,86,0.00,,,0.04,0.00,VWS V14.01,2013-12-07 03:40:00,
2013-12-06 22:44:00,27.1,23.6,30.35,WNW,302,0.0,0.0,86,0.00,,,0.04,0.00,VWS V14.01,2013-12-07 03:44:00,
2013-12-06 22:45:00,27.2,23.7,30.35,WNW,302,0.0,0.0,86,0.00,,,0.04,0.00,VWS V14.01,2013-12-07 03:45:00,
2013-12-06 22:49:00,27.2,23.7,30.36,WNW,302,0.0,0.0,86,0.00,,,0.04,0.00,VWS V14.01,2013-12-07 03:49:00,
2013-12-06 22:50:00,27.2,23.7,30.36,WNW,302,0.0,0.0,86,0.00,,,0.04,0.00,VWS V14.01,2013-12-07 03:50:00,
2013-12-06 22:54:00,27.2,23.7,30.36,WNW,302,0.0,3.4,86,0.00,,,0.04,0.00,VWS V14.01,2013-12-07 03:54:00,
2013-12-06 22:55:00,27.2,23.7,30.36,WNW,302,0.0,3.4,86,0.00,,,0.04,0.00,VWS V14.01,2013-12-07 03:55:00,
2013-12-06 22:59:00,27.2,23.7,30.36,WNW,302,0.0,1.7,86,0.00,,,0.04,0.00,VWS V14.01,2013-12-07 03:59:00,
2013-12-06 23:00:00,27.2,23.7,30.36,WNW,302,0.0,1.7,86,0.00,,,0.04,0.00,VWS V14.01,2013-12-07 04:00:00,
2013-12-06 23:04:00,27.2,23.7,30.36,WNW,302,0.0,0.0,86,0.00,,,0.04,0.00,VWS V14.01,2013-12-07 04:04:00,
2013-12-06 23:05:00,27.2,23.7,30.36,WNW,302,0.0,0.0,86,0.00,,,0.04,0.00,VWS V14.01,2013-12-07 04:05:00,
2013-12-06 23:09:00,27.2,23.7,30.36,WNW,302,0.0,0.0,86,0.00,,,0.04,0.00,VWS V14.01,2013-12-07 04:09:00,
2013-12-06 23:10:00,27.2,23.7,30.36,WNW,302,0.0,0.0,86,0.00,,,0.04,0.00,VWS V14.01,2013-12-07 04:10:00,
2013-12-06 23:14:00,27.2,23.7,30.36,WNW,302,0.0,1.7,86,0.00,,,0.04,0.00,VWS V14.01,2013-12-07 04:14:00,
2013-12-06 23:15:00,27.2,23.7,30.36,WNW,294,0.0,3.4,86,0.00,,,0.04,0.00,VWS V14.01,2013-12-07 04:15:00,
2013-12-06 23:19:00,27.2,23.7,30.36,WNW,296,0.0,1.7,86,0.00,,,0.04,0.00,VWS V14.01,2013-12-07 04:19:00,
2013-12-06 23:20:00,27.2,23.7,30.36,WNW,295,0.0,1.7,86,0.00,,,0.04,0.00,VWS V14.01,2013-12-07 04:20:00,
2013-12-06 23:24:00,27.2,23.7,30.36,WNW,295,0.0,1.7,86,0.00,,,0.04,0.00,VWS V14.01,2013-12-07 04:24:00,
2013-12-06 23:25:00,27.2,23.7,30.36,WNW,296,0.0,1.7,86,0.00,,,0.04,0.00,VWS V14.01,2013-12-07 04:25:00,
2013-12-06 23:29:00,27.2,24.0,30.36,West,269,0.0,1.7,87,0.00,,,0.04,0.00,VWS V14.01,2013-12-07 04:29:00,
2013-12-06 23:30:00,27.2,24.0,30.36,West,269,0.0,1.7,87,0.00,,,0.04,0.00,VWS V14.01,2013-12-07 04:30:00,
2013-12-06 23:34:00,27.2,24.0,30.36,West,269,0.0,0.0,87,0.00,,,0.04,0.00,VWS V14.01,2013-12-07 04:34:00,
2013-12-06 23:35:00,27.2,24.0,30.36,West,269,0.0,0.0,87,0.00,,,0.04,0.00,VWS V14.01,2013-12-07 04:35:00,
2013-12-06 23:39:00,27.2,24.0,30.37,West,270,0.0,1.7,87,0.00,,,0.04,0.00,VWS V14.01,2013-12-07 04:39:00,
2013-12-06 23:40:00,27.2,24.0,30.37,West,269,0.0,1.7,87,0.00,,,0.04,0.00,VWS V14.01,2013-12-07 04:40:00,
2013-12-06 23:44:00,27.2,24.0,30.37,West,263,3.8,5.1,87,0.00,,,0.04,0.00,VWS V14.01,2013-12-07 04:44:00,
2013-12-06 23:45:00,27.2,24.0,30.37,West,263,0.0,5.1,87,0.00,,,0.04,0.00,VWS V14.01,2013-12-07 04:45:00,
2013-12-06 23:49:00,27.1,23.9,30.38,West,274,0.0,6.8,87,0.00,,,0.04,0.00,VWS V14.01,2013-12-07 04:49:00,
2013-12-06 23:50:00,27.1,23.9,30.38,NW,319,5.7,6.8,87,0.00,,,0.04,0.00,VWS V14.01,2013-12-07 04:50:00,
2013-12-06 23:54:00,27.0,23.5,30.37,WNW,287,0.0,5.1,86,0.00,,,0.04,0.00,VWS V14.01,2013-12-07 04:54:00,
2013-12-06 23:55:00,27.0,23.5,30.37,West,268,1.9,5.1,86,0.00,,,0.04,0.00,VWS V14.01,2013-12-07 04:55:00,
2013-12-06 23:59:00,26.9,23.4,30.38,West,270,0.0,5.1,86,0.00,,,0.04,0.00,VWS V14.01,2013-12-07 04:59:00,